Time,TemperatureF,DewpointF,PressureIn,WindDirection,WindDirectionDegrees,WindSpeedMPH,WindSpeedGustMPH,Humidity,HourlyPrecipIn,Conditions,Clouds,dailyrainin,SoftwareType,DateUTC
2013-11-18 00:00:00,71.6,51.5,30.09,SSE,158,0.0,0.0,49,0.00,,---,0.00,VWS V14.01,2013-11-18 05:00:00,
2013-11-18 00:01:00,71.8,51.6,30.09,SSE,158,0.0,0.0,49,0.00,,---,0.00,VWS V14.01,2013-11-18 05:01:00,
2013-11-18 00:02:00,71.8,52.2,30.09,SSE,158,0.0,0.0,50,0.00,,---,0.00,VWS V14.01,2013-11-18 05:02:00,
2013-11-18 00:03:00,71.8,52.2,30.09,SSE,158,0.0,0.0,50,0.00,,---,0.00,VWS V14.01,2013-11-18 05:03:00,
2013-11-18 00:06:00,71.6,52.0,30.09,SSE,158,0.0,0.0,50,0.00,,---,0.00,VWS V14.01,2013-11-18 05:06:00,
2013-11-18 00:07:00,71.6,52.0,30.09,SSE,158,0.0,0.0,50,0.00,,---,0.00,VWS V14.01,2013-11-18 05:07:00,
2013-11-18 00:08:00,71.6,52.0,30.09,SSE,158,0.0,0.0,50,0.00,,---,0.00,VWS V14.01,2013-11-18 05:08:00,
2013-11-18 00:10:00,71.6,52.5,30.09,SSE,158,0.0,0.0,51,0.00,,---,0.00,VWS V14.01,2013-11-18 05:10:00,
2013-11-18 00:12:00,71.6,52.5,30.09,SSE,158,0.0,0.0,51,0.00,,---,0.00,VWS V14.01,2013-11-18 05:12:00,
2013-11-18 00:13:00,71.6,52.5,30.09,SSE,158,0.0,0.0,51,0.00,,---,0.00,VWS V14.01,2013-11-18 05:13:00,
2013-11-18 00:16:00,71.6,53.1,30.09,SE,135,0.0,0.0,52,0.00,,---,0.00,VWS V14.01,2013-11-18 05:16:00,
2013-11-18 00:18:00,71.6,53.1,30.09,SE,135,0.0,0.0,52,0.00,,---,0.00,VWS V14.01,2013-11-18 05:18:00,
2013-11-18 00:20:00,71.6,53.6,30.09,SE,135,0.0,0.0,53,0.00,,---,0.00,VWS V14.01,2013-11-18 05:20:00,
2013-11-18 00:21:00,71.6,53.6,30.06,SE,135,0.0,0.0,53,0.00,,---,0.00,VWS V14.01,2013-11-18 05:21:00,
2013-11-18 00:22:00,71.6,53.6,30.06,SE,135,0.0,0.0,53,0.00,,---,0.00,VWS V14.01,2013-11-18 05:22:00,
2013-11-18 00:23:00,71.6,53.6,30.06,SE,135,0.0,0.0,53,0.00,,---,0.00,VWS V14.01,2013-11-18 05:23:00,
2013-11-18 00:25:00,71.6,53.6,30.06,SE,135,0.0,0.0,53,0.00,,---,0.00,VWS V14.01,2013-11-18 05:25:00,
2013-11-18 00:27:00,71.4,53.4,30.06,SE,135,0.0,0.0,53,0.00,,---,0.00,VWS V14.01,2013-11-18 05:27:00,
2013-11-18 00:30:00,71.4,53.9,30.06,SE,135,0.0,0.0,54,0.00,,---,0.00,VWS V14.01,2013-11-18 05:30:00,
2013-11-18 00:32:00,71.4,53.9,30.06,SE,135,0.0,0.0,54,0.00,,---,0.00,VWS V14.01,2013-11-18 05:32:00,
2013-11-18 00:34:00,71.4,53.9,30.06,SE,135,0.0,0.0,54,0.00,,---,0.00,VWS V14.01,2013-11-18 05:34:00,
2013-11-18 00:35:00,71.4,53.9,30.06,SE,135,0.0,0.0,54,0.00,,---,0.00,VWS V14.01,2013-11-18 05:35:00,
2013-11-18 00:38:00,71.2,53.8,30.09,SE,135,0.0,0.0,54,0.00,,---,0.00,VWS V14.01,2013-11-18 05:38:00,
2013-11-18 00:40:00,71.2,53.8,30.09,SE,135,0.0,0.0,54,0.00,,---,0.00,VWS V14.01,2013-11-18 05:40:00,
2013-11-18 00:44:00,70.9,53.9,30.09,SE,135,0.0,0.0,55,0.00,,---,0.00,VWS V14.01,2013-11-18 05:44:00,
2013-11-18 00:45:00,70.9,53.9,30.09,SE,135,0.0,0.0,55,0.00,,---,0.00,VWS V14.01,2013-11-18 05:45:00,
2013-11-18 00:46:00,70.9,54.4,30.09,SE,135,0.0,0.0,56,0.00,,---,0.00,VWS V14.01,2013-11-18 05:46:00,
2013-11-18 00:49:00,70.9,54.4,30.09,SE,135,0.0,0.0,56,0.00,,---,0.00,VWS V14.01,2013-11-18 05:49:00,
2013-11-18 00:50:00,70.9,54.9,30.09,SE,135,0.0,0.0,57,0.00,,---,0.00,VWS V14.01,2013-11-18 05:50:00,
2013-11-18 00:53:00,70.7,55.2,30.09,SE,135,0.0,0.0,58,0.00,,---,0.00,VWS V14.01,2013-11-18 05:53:00,
2013-11-18 00:54:00,70.7,55.2,30.09,SE,135,0.0,0.0,58,0.00,,---,0.00,VWS V14.01,2013-11-18 05:54:00,
2013-11-18 00:55:00,70.7,55.2,30.09,SE,135,0.0,0.0,58,0.00,,---,0.00,VWS V14.01,2013-11-18 05:55:00,
2013-11-18 00:56:00,70.7,55.2,30.09,SE,135,0.0,0.0,58,0.00,,---,0.00,VWS V14.01,2013-11-18 05:56:00,
2013-11-18 00:59:00,70.5,55.5,30.09,SE,135,0.0,0.0,59,0.00,,---,0.00,VWS V14.01,2013-11-18 05:59:00,
2013-11-18 01:00:00,70.5,55.5,30.09,SE,135,0.0,0.0,59,0.00,,---,0.00,VWS V14.01,2013-11-18 06:00:00,
2013-11-18 01:04:00,70.5,56.0,30.09,SE,135,0.0,0.0,60,0.00,,---,0.00,VWS V14.01,2013-11-18 06:04:00,
2013-11-18 01:05:00,70.5,56.4,30.09,SE,135,0.0,0.0,61,0.00,,---,0.00,VWS V14.01,2013-11-18 06:05:00,
2013-11-18 01:06:00,70.5,56.4,30.09,SE,135,0.0,0.0,61,0.00,,---,0.00,VWS V14.01,2013-11-18 06:06:00,
2013-11-18 01:08:00,70.5,56.9,30.09,SE,135,0.0,0.0,62,0.00,,---,0.00,VWS V14.01,2013-11-18 06:08:00,
2013-11-18 01:10:00,70.5,56.9,30.09,SE,135,0.0,0.0,62,0.00,,---,0.00,VWS V14.01,2013-11-18 06:10:00,
2013-11-18 01:12:00,70.7,57.1,30.09,SE,135,0.0,0.0,62,0.00,,---,0.00,VWS V14.01,2013-11-18 06:12:00,
2013-11-18 01:14:00,70.7,57.5,30.09,SE,135,0.0,0.0,63,0.00,,---,0.00,VWS V14.01,2013-11-18 06:14:00,
2013-11-18 01:15:00,70.5,57.3,30.09,SE,135,0.0,0.0,63,0.00,,---,0.00,VWS V14.01,2013-11-18 06:15:00,
2013-11-18 01:17:00,70.5,57.3,30.09,SE,135,0.0,0.0,63,0.00,,---,0.00,VWS V14.01,2013-11-18 06:17:00,
2013-11-18 01:18:00,70.5,57.3,30.09,SE,135,0.0,0.0,63,0.00,,---,0.00,VWS V14.01,2013-11-18 06:18:00,
2013-11-18 01:20:00,70.3,57.6,30.09,SE,135,0.0,0.0,64,0.00,,---,0.00,VWS V14.01,2013-11-18 06:20:00,
2013-11-18 01:21:00,70.3,57.6,30.09,SE,135,0.0,0.0,64,0.00,,---,0.00,VWS V14.01,2013-11-18 06:21:00,
2013-11-18 01:22:00,70.3,57.6,30.06,SE,135,0.0,0.0,64,0.00,,---,0.00,VWS V14.01,2013-11-18 06:22:00,
2013-11-18 01:25:00,70.3,57.6,30.06,SE,135,0.0,0.0,64,0.00,,---,0.00,VWS V14.01,2013-11-18 06:25:00,
2013-11-18 01:26:00,70.3,57.6,30.06,SE,135,0.0,0.0,64,0.00,,---,0.00,VWS V14.01,2013-11-18 06:26:00,
2013-11-18 01:27:00,70.2,57.4,30.06,SE,135,0.0,0.0,64,0.00,,---,0.00,VWS V14.01,2013-11-18 06:27:00,
2013-11-18 01:29:00,70.0,57.3,30.06,SE,135,0.0,0.0,64,0.00,,---,0.00,VWS V14.01,2013-11-18 06:29:00,
2013-11-18 01:30:00,70.0,57.3,30.06,SE,135,0.0,0.0,64,0.00,,---,0.00,VWS V14.01,2013-11-18 06:30:00,
2013-11-18 01:32:00,70.0,57.3,30.06,SE,135,0.0,0.0,64,0.00,,---,0.00,VWS V14.01,2013-11-18 06:32:00,
2013-11-18 01:34:00,70.0,57.3,30.06,SE,135,0.0,0.0,64,0.00,,---,0.00,VWS V14.01,2013-11-18 06:34:00,
2013-11-18 01:35:00,70.0,57.3,30.06,SE,135,0.0,0.0,64,0.00,,---,0.00,VWS V14.01,2013-11-18 06:35:00,
2013-11-18 01:36:00,69.8,57.1,30.06,SE,135,0.0,0.0,64,0.00,,---,0.00,VWS V14.01,2013-11-18 06:36:00,
2013-11-18 01:39:00,69.8,57.5,30.06,SE,135,0.0,0.0,65,0.00,,---,0.00,VWS V14.01,2013-11-18 06:39:00,
2013-11-18 01:40:00,69.8,57.5,30.06,SE,135,0.0,0.0,65,0.00,,---,0.00,VWS V14.01,2013-11-18 06:40:00,
2013-11-18 01:41:00,69.8,57.5,30.06,SE,135,0.0,0.0,65,0.00,,---,0.00,VWS V14.01,2013-11-18 06:41:00,
2013-11-18 01:42:00,69.8,57.5,30.06,SE,135,0.0,0.0,65,0.00,,---,0.00,VWS V14.01,2013-11-18 06:42:00,
2013-11-18 01:43:00,69.6,57.8,30.06,SE,135,0.0,0.0,66,0.00,,---,0.00,VWS V14.01,2013-11-18 06:43:00,
2013-11-18 01:46:00,69.8,57.9,30.06,SE,135,0.0,0.0,66,0.00,,---,0.00,VWS V14.01,2013-11-18 06:46:00,
2013-11-18 01:47:00,69.8,57.9,30.06,SE,135,0.0,0.0,66,0.00,,---,0.00,VWS V14.01,2013-11-18 06:47:00,
2013-11-18 01:48:00,69.8,57.9,30.06,SE,135,0.0,0.0,66,0.00,,---,0.00,VWS V14.01,2013-11-18 06:48:00,
2013-11-18 01:49:00,69.8,57.9,30.06,SE,135,0.0,0.0,66,0.00,,---,0.00,VWS V14.01,2013-11-18 06:49:00,
2013-11-18 01:51:00,69.8,58.4,30.06,SE,135,0.0,0.0,67,0.00,,---,0.00,VWS V14.01,2013-11-18 06:51:00,
2013-11-18 01:52:00,69.8,58.4,30.06,SE,135,0.0,0.0,67,0.00,,---,0.00,VWS V14.01,2013-11-18 06:52:00,
2013-11-18 01:53:00,69.8,58.4,30.06,SE,135,0.0,0.0,67,0.00,,---,0.00,VWS V14.01,2013-11-18 06:53:00,
2013-11-18 01:56:00,69.6,58.6,30.06,SE,135,0.0,0.0,68,0.00,,---,0.00,VWS V14.01,2013-11-18 06:56:00,
2013-11-18 01:59:00,69.4,58.4,30.06,SE,135,0.0,0.0,68,0.00,,---,0.00,VWS V14.01,2013-11-18 06:59:00,
2013-11-18 02:00:00,69.4,58.4,30.06,SE,135,0.0,0.0,68,0.00,,---,0.00,VWS V14.01,2013-11-18 07:00:00,
2013-11-18 02:03:00,69.4,58.8,30.06,SE,135,0.0,0.0,69,0.00,,---,0.00,VWS V14.01,2013-11-18 07:03:00,
2013-11-18 02:05:00,69.6,59.4,30.06,SE,135,0.0,0.0,70,0.00,,---,0.00,VWS V14.01,2013-11-18 07:05:00,
2013-11-18 02:07:00,69.8,60.0,30.06,SE,135,0.0,0.0,71,0.00,,---,0.00,VWS V14.01,2013-11-18 07:07:00,
2013-11-18 02:08:00,69.8,60.0,30.06,SE,135,0.0,0.0,71,0.00,,---,0.00,VWS V14.01,2013-11-18 07:08:00,
2013-11-18 02:10:00,69.8,60.4,30.06,SE,135,0.0,0.0,72,0.00,,---,0.00,VWS V14.01,2013-11-18 07:10:00,
2013-11-18 02:11:00,69.8,60.8,30.06,SE,135,0.0,0.0,73,0.00,,---,0.00,VWS V14.01,2013-11-18 07:11:00,
2013-11-18 02:12:00,69.8,60.8,30.06,SE,135,0.0,0.0,73,0.00,,---,0.00,VWS V14.01,2013-11-18 07:12:00,
2013-11-18 02:13:00,69.8,61.2,30.06,SE,135,0.0,0.0,74,0.00,,---,0.00,VWS V14.01,2013-11-18 07:13:00,
2013-11-18 02:15:00,69.8,61.2,30.06,SE,135,0.0,0.0,74,0.00,,---,0.00,VWS V14.01,2013-11-18 07:15:00,
2013-11-18 02:16:00,69.8,61.2,30.06,SE,135,0.0,0.0,74,0.00,,---,0.00,VWS V14.01,2013-11-18 07:16:00,
2013-11-18 02:18:00,70.0,61.3,30.06,SE,135,0.0,0.0,74,0.00,,---,0.00,VWS V14.01,2013-11-18 07:18:00,
2013-11-18 02:19:00,70.0,61.3,30.06,SE,135,0.0,0.0,74,0.00,,---,0.00,VWS V14.01,2013-11-18 07:19:00,
2013-11-18 02:20:00,70.0,61.7,30.06,SE,135,0.0,0.0,75,0.00,,---,0.00,VWS V14.01,2013-11-18 07:20:00,
2013-11-18 02:24:00,70.0,61.7,30.06,SE,135,0.0,0.0,75,0.00,,---,0.00,VWS V14.01,2013-11-18 07:24:00,
2013-11-18 02:25:00,70.0,62.1,30.06,SE,135,0.0,0.0,76,0.00,,---,0.00,VWS V14.01,2013-11-18 07:25:00,
2013-11-18 02:27:00,70.0,62.1,30.06,SE,135,0.0,0.0,76,0.00,,---,0.00,VWS V14.01,2013-11-18 07:27:00,
2013-11-18 02:30:00,70.0,62.5,30.06,SE,135,0.0,0.0,77,0.00,,---,0.00,VWS V14.01,2013-11-18 07:30:00,
2013-11-18 02:31:00,70.0,62.5,30.06,SE,135,0.0,0.0,77,0.00,,---,0.00,VWS V14.01,2013-11-18 07:31:00,
2013-11-18 02:33:00,70.0,62.5,30.06,SE,135,0.0,0.0,77,0.00,,---,0.00,VWS V14.01,2013-11-18 07:33:00,
2013-11-18 02:35:00,70.0,62.5,30.06,SE,135,0.0,0.0,77,0.00,,---,0.00,VWS V14.01,2013-11-18 07:35:00,
2013-11-18 02:36:00,70.0,62.5,30.06,SE,135,0.0,0.0,77,0.00,,---,0.00,VWS V14.01,2013-11-18 07:36:00,
2013-11-18 02:38:00,70.0,62.5,30.06,SE,135,0.0,0.0,77,0.00,,---,0.00,VWS V14.01,2013-11-18 07:38:00,
2013-11-18 02:40:00,70.2,63.0,30.06,SE,135,0.0,0.0,78,0.00,,---,0.00,VWS V14.01,2013-11-18 07:40:00,
2013-11-18 02:41:00,70.2,63.0,30.06,SE,135,0.0,0.0,78,0.00,,---,0.00,VWS V14.01,2013-11-18 07:41:00,
2013-11-18 02:42:00,70.2,63.0,30.06,SE,135,0.0,0.0,78,0.00,,---,0.00,VWS V14.01,2013-11-18 07:42:00,
2013-11-18 02:43:00,70.2,63.0,30.06,SE,135,0.0,0.0,78,0.00,,---,0.00,VWS V14.01,2013-11-18 07:43:00,
2013-11-18 02:45:00,70.2,63.3,30.06,SE,135,0.0,0.0,79,0.00,,---,0.00,VWS V14.01,2013-11-18 07:45:00,
2013-11-18 02:48:00,70.2,63.7,30.06,SE,135,0.0,0.0,80,0.00,,---,0.00,VWS V14.01,2013-11-18 07:48:00,
2013-11-18 02:49:00,70.2,63.7,30.06,SE,135,0.0,0.0,80,0.00,,---,0.00,VWS V14.01,2013-11-18 07:49:00,
2013-11-18 02:50:00,70.2,63.7,30.06,SE,135,0.0,0.0,80,0.00,,---,0.00,VWS V14.01,2013-11-18 07:50:00,
2013-11-18 02:51:00,70.2,63.7,30.06,SE,135,0.0,0.0,80,0.00,,---,0.00,VWS V14.01,2013-11-18 07:51:00,
2013-11-18 02:54:00,70.3,63.9,30.06,SE,135,0.0,0.0,80,0.00,,---,0.00,VWS V14.01,2013-11-18 07:54:00,
2013-11-18 02:55:00,70.3,63.9,30.06,SE,135,0.0,0.0,80,0.00,,---,0.00,VWS V14.01,2013-11-18 07:55:00,
2013-11-18 02:56:00,70.3,63.9,30.06,ENE,68,0.0,0.0,80,0.00,,---,0.00,VWS V14.01,2013-11-18 07:56:00,
2013-11-18 02:59:00,70.5,64.4,30.06,ENE,68,0.0,0.0,81,0.00,,---,0.00,VWS V14.01,2013-11-18 07:59:00,
2013-11-18 03:00:00,70.7,64.6,30.06,ENE,68,0.0,0.0,81,0.00,,---,0.00,VWS V14.01,2013-11-18 08:00:00,
2013-11-18 03:01:00,70.9,65.5,30.06,ENE,68,0.0,0.0,83,0.00,,---,0.00,VWS V14.01,2013-11-18 08:01:00,
2013-11-18 03:02:00,70.9,65.8,30.06,ENE,68,0.0,0.0,84,0.00,,---,0.00,VWS V14.01,2013-11-18 08:02:00,
2013-11-18 03:05:00,70.9,65.8,30.06,ENE,68,0.0,0.0,84,0.00,,---,0.00,VWS V14.01,2013-11-18 08:05:00,
2013-11-18 03:06:00,70.9,65.8,30.06,ENE,68,0.0,0.0,84,0.00,,---,0.00,VWS V14.01,2013-11-18 08:06:00,
2013-11-18 03:10:00,70.9,66.2,30.06,ENE,68,0.0,0.0,85,0.00,,---,0.00,VWS V14.01,2013-11-18 08:10:00,
2013-11-18 03:12:00,71.1,66.7,30.06,ENE,68,0.0,0.0,86,0.00,,---,0.00,VWS V14.01,2013-11-18 08:12:00,
2013-11-18 03:13:00,71.1,66.7,30.06,ENE,68,0.0,0.0,86,0.00,,---,0.00,VWS V14.01,2013-11-18 08:13:00,
2013-11-18 03:15:00,71.1,66.7,30.06,ENE,68,0.0,0.0,86,0.00,,---,0.00,VWS V14.01,2013-11-18 08:15:00,
2013-11-18 03:16:00,71.1,66.7,30.06,ENE,68,0.0,0.0,86,0.00,,---,0.00,VWS V14.01,2013-11-18 08:16:00,
2013-11-18 03:18:00,71.1,66.7,30.06,ENE,68,0.0,0.0,86,0.00,,---,0.00,VWS V14.01,2013-11-18 08:18:00,
2013-11-18 03:23:00,71.1,66.3,30.06,ENE,68,0.0,0.0,85,0.00,,---,0.00,VWS V14.01,2013-11-18 08:23:00,
2013-11-18 03:24:00,71.1,66.3,30.06,ENE,68,0.0,0.0,85,0.00,,---,0.00,VWS V14.01,2013-11-18 08:24:00,
2013-11-18 03:25:00,71.2,66.8,30.06,ENE,68,0.0,0.0,86,0.00,,---,0.00,VWS V14.01,2013-11-18 08:25:00,
2013-11-18 03:26:00,71.2,66.8,30.06,ENE,68,0.0,0.0,86,0.00,,---,0.00,VWS V14.01,2013-11-18 08:26:00,
2013-11-18 03:28:00,71.2,66.8,30.06,ENE,68,0.0,0.0,86,0.00,,---,0.00,VWS V14.01,2013-11-18 08:28:00,
2013-11-18 03:30:00,71.2,66.5,30.06,ENE,68,0.0,0.0,85,0.00,,---,0.00,VWS V14.01,2013-11-18 08:30:00,
2013-11-18 03:32:00,71.2,66.5,30.06,ENE,68,0.0,0.0,85,0.00,,---,0.00,VWS V14.01,2013-11-18 08:32:00,
2013-11-18 03:33:00,71.2,66.5,30.06,ENE,68,0.0,0.0,85,0.00,,---,0.00,VWS V14.01,2013-11-18 08:33:00,
2013-11-18 03:34:00,71.2,66.5,30.06,ENE,68,0.0,0.0,85,0.00,,---,0.00,VWS V14.01,2013-11-18 08:34:00,
2013-11-18 03:35:00,71.2,66.5,30.06,ENE,68,0.0,0.0,85,0.00,,---,0.00,VWS V14.01,2013-11-18 08:35:00,
2013-11-18 03:38:00,71.2,66.5,30.06,ENE,68,0.0,0.0,85,0.00,,---,0.00,VWS V14.01,2013-11-18 08:38:00,
2013-11-18 03:40:00,71.2,66.5,30.06,ENE,68,0.0,0.0,85,0.00,,---,0.00,VWS V14.01,2013-11-18 08:40:00,
2013-11-18 03:42:00,71.2,66.5,30.06,ENE,68,0.0,0.0,85,0.00,,---,0.00,VWS V14.01,2013-11-18 08:42:00,
2013-11-18 03:43:00,71.2,66.5,30.06,ENE,68,0.0,0.0,85,0.00,,---,0.00,VWS V14.01,2013-11-18 08:43:00,
2013-11-18 03:45:00,71.2,66.5,30.06,ENE,68,0.0,0.0,85,0.00,,---,0.00,VWS V14.01,2013-11-18 08:45:00,
2013-11-18 03:47:00,71.2,66.5,30.06,ENE,68,0.0,0.0,85,0.00,,---,0.00,VWS V14.01,2013-11-18 08:47:00,
2013-11-18 03:48:00,71.2,66.5,30.06,ENE,68,0.0,0.0,85,0.00,,---,0.00,VWS V14.01,2013-11-18 08:48:00,
2013-11-18 03:52:00,71.2,66.5,30.06,ENE,68,0.0,0.0,85,0.00,,---,0.00,VWS V14.01,2013-11-18 08:52:00,
2013-11-18 03:53:00,71.2,66.5,30.06,ENE,68,0.0,0.0,85,0.00,,---,0.00,VWS V14.01,2013-11-18 08:53:00,
2013-11-18 03:54:00,71.2,66.5,30.06,ENE,68,0.0,0.0,85,0.00,,---,0.00,VWS V14.01,2013-11-18 08:54:00,
2013-11-18 03:57:00,71.2,66.5,30.06,ENE,68,0.0,0.0,85,0.00,,---,0.00,VWS V14.01,2013-11-18 08:57:00,
2013-11-18 03:58:00,71.2,66.5,30.06,ENE,68,0.0,0.0,85,0.00,,---,0.00,VWS V14.01,2013-11-18 08:58:00,
2013-11-18 04:01:00,71.2,66.5,30.06,ENE,68,0.0,0.0,85,0.00,,---,0.00,VWS V14.01,2013-11-18 09:01:00,
2013-11-18 04:03:00,71.2,66.5,30.06,ENE,68,0.0,0.0,85,0.00,,---,0.00,VWS V14.01,2013-11-18 09:03:00,
2013-11-18 04:05:00,71.2,66.5,30.06,ENE,68,0.0,0.0,85,0.00,,---,0.00,VWS V14.01,2013-11-18 09:05:00,
2013-11-18 04:07:00,71.2,66.5,30.06,ENE,68,0.0,0.0,85,0.00,,---,0.00,VWS V14.01,2013-11-18 09:07:00,
2013-11-18 04:08:00,71.2,66.5,30.06,ENE,68,0.0,0.0,85,0.00,,---,0.00,VWS V14.01,2013-11-18 09:08:00,
2013-11-18 04:10:00,71.2,66.5,30.06,ENE,68,0.0,0.0,85,0.00,,---,0.00,VWS V14.01,2013-11-18 09:10:00,
2013-11-18 04:11:00,71.2,66.5,30.06,ENE,68,0.0,0.0,85,0.00,,---,0.00,VWS V14.01,2013-11-18 09:11:00,
2013-11-18 04:13:00,71.2,66.5,30.06,ENE,68,0.0,0.0,85,0.00,,---,0.00,VWS V14.01,2013-11-18 09:13:00,
2013-11-18 04:15:00,71.2,66.5,30.06,ENE,68,0.0,0.0,85,0.00,,---,0.00,VWS V14.01,2013-11-18 09:15:00,
2013-11-18 04:18:00,71.2,66.2,30.06,ENE,68,0.0,0.0,84,0.00,,---,0.00,VWS V14.01,2013-11-18 09:18:00,
2013-11-18 04:20:00,71.2,66.2,30.06,ENE,68,0.0,0.0,84,0.00,,---,0.00,VWS V14.01,2013-11-18 09:20:00,
2013-11-18 04:21:00,71.2,66.5,30.06,ENE,68,0.0,0.0,85,0.00,,---,0.00,VWS V14.01,2013-11-18 09:21:00,
2013-11-18 04:22:00,71.2,66.5,30.06,ENE,68,0.0,0.0,85,0.00,,---,0.00,VWS V14.01,2013-11-18 09:22:00,
2013-11-18 04:23:00,71.2,66.5,30.06,ENE,68,0.0,0.0,85,0.00,,---,0.00,VWS V14.01,2013-11-18 09:23:00,
2013-11-18 04:24:00,71.2,66.5,30.06,ENE,68,0.0,0.0,85,0.00,,---,0.00,VWS V14.01,2013-11-18 09:24:00,
2013-11-18 04:25:00,71.2,66.5,30.06,ENE,68,0.0,0.0,85,0.00,,---,0.00,VWS V14.01,2013-11-18 09:25:00,
2013-11-18 04:26:00,71.2,66.5,30.06,ENE,68,0.0,0.0,85,0.00,,---,0.00,VWS V14.01,2013-11-18 09:26:00,
2013-11-18 04:29:00,71.2,66.2,30.06,ENE,68,0.0,0.0,84,0.00,,---,0.00,VWS V14.01,2013-11-18 09:29:00,
2013-11-18 04:30:00,71.2,66.2,30.06,ENE,68,0.0,0.0,84,0.00,,---,0.00,VWS V14.01,2013-11-18 09:30:00,
2013-11-18 04:31:00,71.2,66.2,30.06,ENE,68,0.0,0.0,84,0.00,,---,0.00,VWS V14.01,2013-11-18 09:31:00,
2013-11-18 04:32:00,71.2,66.2,30.06,ENE,68,0.0,0.0,84,0.00,,---,0.00,VWS V14.01,2013-11-18 09:32:00,
2013-11-18 04:34:00,71.2,66.5,30.06,ENE,68,0.0,0.0,85,0.00,,---,0.00,VWS V14.01,2013-11-18 09:34:00,
2013-11-18 04:35:00,71.2,66.5,30.06,ENE,68,0.0,0.0,85,0.00,,---,0.00,VWS V14.01,2013-11-18 09:35:00,
2013-11-18 04:39:00,71.4,66.7,30.06,ENE,68,0.0,0.0,85,0.00,,---,0.00,VWS V14.01,2013-11-18 09:39:00,
2013-11-18 04:40:00,71.4,66.7,30.06,ENE,68,0.0,0.0,85,0.00,,---,0.00,VWS V14.01,2013-11-18 09:40:00,
2013-11-18 04:45:00,71.4,66.7,30.06,ENE,68,0.0,0.0,85,0.00,,---,0.00,VWS V14.01,2013-11-18 09:45:00,
2013-11-18 04:46:00,71.4,66.7,30.06,ENE,68,0.0,0.0,85,0.00,,---,0.00,VWS V14.01,2013-11-18 09:46:00,
2013-11-18 04:48:00,71.4,66.7,30.06,ENE,68,0.0,0.0,85,0.00,,---,0.00,VWS V14.01,2013-11-18 09:48:00,
2013-11-18 04:50:00,71.4,66.7,30.06,ENE,68,0.0,0.0,85,0.00,,---,0.00,VWS V14.01,2013-11-18 09:50:00,
2013-11-18 04:53:00,71.6,66.5,30.06,ENE,68,0.0,0.0,84,0.00,,---,0.00,VWS V14.01,2013-11-18 09:53:00,
2013-11-18 04:55:00,71.6,66.5,30.06,ENE,68,0.0,0.0,84,0.00,,---,0.00,VWS V14.01,2013-11-18 09:55:00,
2013-11-18 04:59:00,71.6,66.5,30.06,ESE,112,0.0,0.0,84,0.00,,---,0.00,VWS V14.01,2013-11-18 09:59:00,
2013-11-18 05:00:00,71.6,66.5,30.06,ESE,112,0.0,0.0,84,0.00,,---,0.00,VWS V14.01,2013-11-18 10:00:00,
2013-11-18 05:01:00,71.6,66.5,30.06,ESE,112,0.0,0.0,84,0.00,,---,0.00,VWS V14.01,2013-11-18 10:01:00,
2013-11-18 05:02:00,71.6,66.5,30.06,ESE,112,0.0,0.0,84,0.00,,---,0.00,VWS V14.01,2013-11-18 10:02:00,
2013-11-18 05:03:00,71.6,66.5,30.06,ESE,112,0.0,0.0,84,0.00,,---,0.00,VWS V14.01,2013-11-18 10:03:00,
2013-11-18 05:04:00,71.6,66.5,30.06,ESE,112,0.0,0.0,84,0.00,,---,0.00,VWS V14.01,2013-11-18 10:04:00,
2013-11-18 05:06:00,71.6,66.5,30.06,ESE,112,0.0,0.0,84,0.00,,---,0.00,VWS V14.01,2013-11-18 10:06:00,
2013-11-18 05:09:00,71.6,66.2,30.06,ESE,112,0.0,0.0,83,0.00,,---,0.00,VWS V14.01,2013-11-18 10:09:00,
2013-11-18 05:11:00,71.6,66.2,30.06,ESE,112,0.0,0.0,83,0.00,,---,0.00,VWS V14.01,2013-11-18 10:11:00,
2013-11-18 05:14:00,71.6,65.8,30.06,ESE,112,0.0,0.0,82,0.00,,---,0.00,VWS V14.01,2013-11-18 10:14:00,
2013-11-18 05:15:00,71.6,65.8,30.06,ESE,112,0.0,0.0,82,0.00,,---,0.00,VWS V14.01,2013-11-18 10:15:00,
2013-11-18 05:16:00,71.4,65.6,30.06,ESE,112,0.0,0.0,82,0.00,,---,0.00,VWS V14.01,2013-11-18 10:16:00,
2013-11-18 05:17:00,71.4,65.6,30.06,ESE,112,0.0,0.0,82,0.00,,---,0.00,VWS V14.01,2013-11-18 10:17:00,
2013-11-18 05:19:00,71.4,65.6,30.06,SE,135,0.0,0.0,82,0.00,,---,0.00,VWS V14.01,2013-11-18 10:19:00,
2013-11-18 05:20:00,71.4,65.6,30.06,SE,135,0.0,0.0,82,0.00,,---,0.00,VWS V14.01,2013-11-18 10:20:00,
2013-11-18 05:24:00,71.2,65.1,30.06,SE,135,0.0,0.0,81,0.00,,---,0.00,VWS V14.01,2013-11-18 10:24:00,
2013-11-18 05:25:00,71.1,64.9,30.06,SE,135,0.0,0.0,81,0.00,,---,0.00,VWS V14.01,2013-11-18 10:25:00,
2013-11-18 05:26:00,71.1,64.9,30.06,SE,135,0.0,0.0,81,0.00,,---,0.00,VWS V14.01,2013-11-18 10:26:00,
2013-11-18 05:30:00,70.9,64.4,30.06,SE,135,0.0,0.0,80,0.00,,---,0.00,VWS V14.01,2013-11-18 10:30:00,
2013-11-18 05:31:00,70.9,64.4,30.06,SE,135,0.0,0.0,80,0.00,,---,0.00,VWS V14.01,2013-11-18 10:31:00,
2013-11-18 05:32:00,70.9,64.4,30.06,SE,135,0.0,0.0,80,0.00,,---,0.00,VWS V14.01,2013-11-18 10:32:00,
2013-11-18 05:34:00,70.7,64.6,30.06,SE,135,0.0,0.0,81,0.00,,---,0.00,VWS V14.01,2013-11-18 10:34:00,
2013-11-18 05:35:00,70.7,64.6,30.06,SE,135,0.0,0.0,81,0.00,,---,0.00,VWS V14.01,2013-11-18 10:35:00,
2013-11-18 05:38:00,70.7,64.2,30.06,SE,135,0.0,0.0,80,0.00,,---,0.00,VWS V14.01,2013-11-18 10:38:00,
2013-11-18 05:39:00,70.5,64.4,30.06,SE,135,0.0,0.0,81,0.00,,---,0.00,VWS V14.01,2013-11-18 10:39:00,
2013-11-18 05:40:00,70.5,64.4,30.06,SE,135,0.0,0.0,81,0.00,,---,0.00,VWS V14.01,2013-11-18 10:40:00,
2013-11-18 05:43:00,70.5,64.4,30.06,SE,135,0.0,0.0,81,0.00,,---,0.00,VWS V14.01,2013-11-18 10:43:00,
2013-11-18 05:44:00,70.3,64.2,30.06,SE,135,0.0,0.0,81,0.00,,---,0.00,VWS V14.01,2013-11-18 10:44:00,
2013-11-18 05:45:00,70.3,64.2,30.06,SE,135,0.0,0.0,81,0.00,,---,0.00,VWS V14.01,2013-11-18 10:45:00,
2013-11-18 05:46:00,70.3,64.2,30.06,SE,135,0.0,0.0,81,0.00,,---,0.00,VWS V14.01,2013-11-18 10:46:00,
2013-11-18 05:48:00,70.2,64.1,30.06,SE,135,0.0,0.0,81,0.00,,---,0.00,VWS V14.01,2013-11-18 10:48:00,
2013-11-18 05:51:00,70.2,64.4,30.06,SE,135,0.0,0.0,82,0.00,,---,0.00,VWS V14.01,2013-11-18 10:51:00,
2013-11-18 05:52:00,70.2,64.8,30.06,SE,135,0.0,0.0,83,0.00,,---,0.00,VWS V14.01,2013-11-18 10:52:00,
2013-11-18 05:54:00,70.2,64.8,30.06,SE,135,0.0,0.0,83,0.00,,---,0.00,VWS V14.01,2013-11-18 10:54:00,
2013-11-18 05:55:00,70.2,65.1,30.06,SE,135,0.0,0.0,84,0.00,,---,0.00,VWS V14.01,2013-11-18 10:55:00,
2013-11-18 05:56:00,70.2,65.1,30.06,SE,135,0.0,0.0,84,0.00,,---,0.00,VWS V14.01,2013-11-18 10:56:00,
2013-11-18 05:57:00,70.2,65.1,30.06,SE,135,0.0,0.0,84,0.00,,---,0.00,VWS V14.01,2013-11-18 10:57:00,
2013-11-18 05:59:00,70.2,65.1,30.06,SE,135,0.0,0.0,84,0.00,,---,0.00,VWS V14.01,2013-11-18 10:59:00,
2013-11-18 06:01:00,70.2,65.1,30.06,SE,135,0.0,0.0,84,0.00,,---,0.00,VWS V14.01,2013-11-18 11:01:00,
2013-11-18 06:02:00,70.2,65.1,30.06,SE,135,0.0,0.0,84,0.00,,---,0.00,VWS V14.01,2013-11-18 11:02:00,
2013-11-18 06:04:00,70.2,65.4,30.06,SE,135,0.0,0.0,85,0.00,,---,0.00,VWS V14.01,2013-11-18 11:04:00,
2013-11-18 06:05:00,70.2,65.4,30.06,SE,135,0.0,0.0,85,0.00,,---,0.00,VWS V14.01,2013-11-18 11:05:00,
2013-11-18 06:06:00,70.2,65.4,30.06,SE,135,0.0,0.0,85,0.00,,---,0.00,VWS V14.01,2013-11-18 11:06:00,
2013-11-18 06:07:00,70.2,65.4,30.06,SE,135,0.0,0.0,85,0.00,,---,0.00,VWS V14.01,2013-11-18 11:07:00,
2013-11-18 06:10:00,70.0,65.3,30.06,SE,135,0.0,0.0,85,0.00,,---,0.00,VWS V14.01,2013-11-18 11:10:00,
2013-11-18 06:12:00,70.0,65.3,30.06,SE,135,0.0,0.0,85,0.00,,---,0.00,VWS V14.01,2013-11-18 11:12:00,
2013-11-18 06:14:00,70.0,65.3,30.06,SE,135,0.0,0.0,85,0.00,,---,0.00,VWS V14.01,2013-11-18 11:14:00,
2013-11-18 06:15:00,70.2,65.4,30.06,SE,135,0.0,0.0,85,0.00,,---,0.00,VWS V14.01,2013-11-18 11:15:00,
2013-11-18 06:16:00,70.2,65.8,30.06,SE,135,0.0,0.0,86,0.00,,---,0.00,VWS V14.01,2013-11-18 11:16:00,
2013-11-18 06:17:00,70.2,65.8,30.06,SE,135,0.0,0.0,86,0.00,,---,0.00,VWS V14.01,2013-11-18 11:17:00,
2013-11-18 06:20:00,70.2,65.8,30.06,ESE,112,0.0,0.0,86,0.00,,---,0.00,VWS V14.01,2013-11-18 11:20:00,
2013-11-18 06:21:00,70.2,65.8,30.06,ESE,112,0.0,0.0,86,0.00,,---,0.00,VWS V14.01,2013-11-18 11:21:00,
2013-11-18 06:24:00,70.0,65.6,30.06,ESE,112,0.0,0.0,86,0.00,,---,0.00,VWS V14.01,2013-11-18 11:24:00,
2013-11-18 06:25:00,70.0,65.6,30.06,ESE,112,0.0,0.0,86,0.00,,---,0.00,VWS V14.01,2013-11-18 11:25:00,
2013-11-18 06:26:00,70.0,65.6,30.06,ESE,112,0.0,0.0,86,0.00,,---,0.00,VWS V14.01,2013-11-18 11:26:00,
2013-11-18 06:29:00,69.8,65.4,30.06,ESE,112,0.0,0.0,86,0.00,,---,0.00,VWS V14.01,2013-11-18 11:29:00,
2013-11-18 06:30:00,69.8,65.4,30.06,ESE,112,0.0,0.0,86,0.00,,---,0.00,VWS V14.01,2013-11-18 11:30:00,
2013-11-18 06:31:00,69.8,65.8,30.06,ESE,112,0.0,0.0,87,0.00,,---,0.00,VWS V14.01,2013-11-18 11:31:00,
2013-11-18 06:32:00,69.8,65.8,30.06,ESE,112,0.0,0.0,87,0.00,,---,0.00,VWS V14.01,2013-11-18 11:32:00,
2013-11-18 06:34:00,69.8,65.8,30.06,ESE,112,0.0,0.0,87,0.00,,---,0.00,VWS V14.01,2013-11-18 11:34:00,
2013-11-18 06:35:00,69.8,65.8,30.06,ESE,112,0.0,0.0,87,0.00,,---,0.00,VWS V14.01,2013-11-18 11:35:00,
2013-11-18 06:36:00,69.8,65.8,30.06,ESE,112,0.0,0.0,87,0.00,,---,0.00,VWS V14.01,2013-11-18 11:36:00,
2013-11-18 06:37:00,69.8,65.8,30.06,ESE,112,0.0,0.0,87,0.00,,---,0.00,VWS V14.01,2013-11-18 11:37:00,
2013-11-18 06:38:00,69.8,65.8,30.06,ESE,112,0.0,0.0,87,0.00,,---,0.00,VWS V14.01,2013-11-18 11:38:00,
2013-11-18 06:40:00,69.8,65.8,30.06,ESE,112,0.0,0.0,87,0.00,,---,0.00,VWS V14.01,2013-11-18 11:40:00,
2013-11-18 06:43:00,69.8,65.8,30.06,ESE,112,0.0,0.0,87,0.00,,---,0.00,VWS V14.01,2013-11-18 11:43:00,
2013-11-18 06:44:00,69.8,65.8,30.06,ESE,112,0.0,0.0,87,0.00,,---,0.00,VWS V14.01,2013-11-18 11:44:00,
2013-11-18 06:45:00,69.6,65.9,30.06,ESE,112,0.0,0.0,88,0.00,,---,0.00,VWS V14.01,2013-11-18 11:45:00,
2013-11-18 06:46:00,69.6,65.9,30.06,ESE,112,0.0,0.0,88,0.00,,---,0.00,VWS V14.01,2013-11-18 11:46:00,
2013-11-18 06:50:00,69.6,65.9,30.06,ESE,112,0.0,0.0,88,0.00,,---,0.00,VWS V14.01,2013-11-18 11:50:00,
2013-11-18 06:51:00,69.6,65.9,30.06,ESE,112,0.0,0.0,88,0.00,,---,0.00,VWS V14.01,2013-11-18 11:51:00,
2013-11-18 06:52:00,69.6,65.9,30.06,ESE,112,0.0,0.0,88,0.00,,---,0.00,VWS V14.01,2013-11-18 11:52:00,
2013-11-18 06:54:00,69.4,66.1,30.06,ESE,112,0.0,0.0,89,0.00,,---,0.00,VWS V14.01,2013-11-18 11:54:00,
2013-11-18 06:55:00,69.4,66.1,30.06,ESE,112,0.0,0.0,89,0.00,,---,0.00,VWS V14.01,2013-11-18 11:55:00,
2013-11-18 06:57:00,69.4,66.1,30.06,ESE,112,0.0,0.0,89,0.00,,---,0.00,VWS V14.01,2013-11-18 11:57:00,
2013-11-18 06:58:00,69.4,66.1,30.06,ESE,112,0.0,0.0,89,0.00,,---,0.00,VWS V14.01,2013-11-18 11:58:00,
2013-11-18 06:59:00,69.4,66.1,30.06,ESE,112,0.0,0.0,89,0.00,,---,0.00,VWS V14.01,2013-11-18 11:59:00,
2013-11-18 07:00:00,69.4,66.1,30.06,ESE,112,0.0,0.0,89,0.00,,---,0.00,VWS V14.01,2013-11-18 12:00:00,
2013-11-18 07:03:00,69.4,66.1,30.06,ESE,112,0.0,0.0,89,0.00,,---,0.00,VWS V14.01,2013-11-18 12:03:00,
2013-11-18 07:05:00,69.4,66.1,30.06,ESE,112,0.0,0.0,89,0.00,,---,0.00,VWS V14.01,2013-11-18 12:05:00,
2013-11-18 07:08:00,69.4,66.4,30.06,ESE,112,0.0,0.0,90,0.00,,---,0.00,VWS V14.01,2013-11-18 12:08:00,
2013-11-18 07:09:00,69.4,66.4,30.06,ESE,112,0.0,0.0,90,0.00,,---,0.00,VWS V14.01,2013-11-18 12:09:00,
2013-11-18 07:10:00,69.4,66.4,30.06,ESE,112,0.0,0.0,90,0.00,,---,0.00,VWS V14.01,2013-11-18 12:10:00,
2013-11-18 07:12:00,69.6,66.6,30.06,ESE,112,0.0,0.0,90,0.00,,---,0.00,VWS V14.01,2013-11-18 12:12:00,
2013-11-18 07:14:00,69.8,66.7,30.06,ESE,112,0.0,0.0,90,0.00,,---,0.00,VWS V14.01,2013-11-18 12:14:00,
2013-11-18 07:15:00,69.8,66.7,30.06,ESE,112,0.0,0.0,90,0.00,,---,0.00,VWS V14.01,2013-11-18 12:15:00,
2013-11-18 07:16:00,70.0,66.9,30.06,ESE,112,0.0,0.0,90,0.00,,---,0.00,VWS V14.01,2013-11-18 12:16:00,
2013-11-18 07:17:00,70.0,66.9,30.06,ESE,112,0.0,0.0,90,0.00,,---,0.00,VWS V14.01,2013-11-18 12:17:00,
2013-11-18 07:19:00,70.2,67.4,30.06,ESE,112,0.0,0.0,91,0.00,,---,0.00,VWS V14.01,2013-11-18 12:19:00,
2013-11-18 07:20:00,70.3,67.6,30.06,ESE,112,0.0,0.0,91,0.00,,---,0.00,VWS V14.01,2013-11-18 12:20:00,
2013-11-18 07:21:00,70.5,67.8,30.06,ESE,112,0.0,0.0,91,0.00,,---,0.00,VWS V14.01,2013-11-18 12:21:00,
2013-11-18 07:23:00,70.7,67.9,30.06,ESE,112,0.0,0.0,91,0.00,,---,0.00,VWS V14.01,2013-11-18 12:23:00,
2013-11-18 07:25:00,70.9,68.1,30.06,ESE,112,0.0,0.0,91,0.00,,---,0.00,VWS V14.01,2013-11-18 12:25:00,
2013-11-18 07:26:00,71.1,68.3,30.06,ESE,112,0.0,0.0,91,0.00,,---,0.00,VWS V14.01,2013-11-18 12:26:00,
2013-11-18 07:29:00,71.8,69.0,30.06,ESE,112,0.0,0.0,91,0.00,,---,0.00,VWS V14.01,2013-11-18 12:29:00,
2013-11-18 07:30:00,71.8,69.0,30.06,ESE,112,0.0,0.0,91,0.00,,---,0.00,VWS V14.01,2013-11-18 12:30:00,
2013-11-18 07:31:00,72.0,69.5,30.06,ESE,112,0.0,0.0,92,0.00,,---,0.00,VWS V14.01,2013-11-18 12:31:00,
2013-11-18 07:35:00,72.7,70.2,30.06,ESE,112,0.0,0.0,92,0.00,,---,0.00,VWS V14.01,2013-11-18 12:35:00,
2013-11-18 07:36:00,72.7,70.2,30.06,ESE,112,0.0,0.0,92,0.00,,---,0.00,VWS V14.01,2013-11-18 12:36:00,
2013-11-18 07:37:00,72.7,70.2,30.06,ESE,112,0.0,0.0,92,0.00,,---,0.00,VWS V14.01,2013-11-18 12:37:00,
2013-11-18 07:40:00,72.7,70.2,30.06,ESE,112,0.0,0.0,92,0.00,,---,0.00,VWS V14.01,2013-11-18 12:40:00,
2013-11-18 07:41:00,72.7,70.2,30.06,ESE,112,0.0,0.0,92,0.00,,---,0.00,VWS V14.01,2013-11-18 12:41:00,
2013-11-18 07:42:00,72.7,70.2,30.06,ESE,112,0.0,0.0,92,0.00,,---,0.00,VWS V14.01,2013-11-18 12:42:00,
2013-11-18 07:43:00,72.7,70.2,30.06,ESE,112,0.0,0.0,92,0.00,,---,0.00,VWS V14.01,2013-11-18 12:43:00,
2013-11-18 07:45:00,72.7,70.2,30.06,ESE,112,0.0,0.0,92,0.00,,---,0.00,VWS V14.01,2013-11-18 12:45:00,
2013-11-18 07:46:00,74.3,71.5,30.06,ESE,112,0.0,0.0,91,0.00,,---,0.00,VWS V14.01,2013-11-18 12:46:00,
2013-11-18 07:50:00,75.2,72.1,30.06,ESE,112,0.0,0.0,90,0.00,,---,0.00,VWS V14.01,2013-11-18 12:50:00,
2013-11-18 07:51:00,75.2,72.1,30.06,ESE,112,0.0,0.0,90,0.00,,---,0.00,VWS V14.01,2013-11-18 12:51:00,
2013-11-18 07:52:00,75.4,71.9,30.06,ESE,112,0.0,0.0,89,0.00,,---,0.00,VWS V14.01,2013-11-18 12:52:00,
2013-11-18 07:54:00,75.6,71.8,30.06,SE,135,0.0,0.0,88,0.00,,---,0.00,VWS V14.01,2013-11-18 12:54:00,
2013-11-18 07:55:00,75.7,71.6,30.06,SE,135,0.0,0.0,87,0.00,,---,0.00,VWS V14.01,2013-11-18 12:55:00,
2013-11-18 07:56:00,75.7,70.9,30.06,ESE,112,0.0,0.0,85,0.00,,---,0.00,VWS V14.01,2013-11-18 12:56:00,
2013-11-18 07:58:00,76.1,69.5,30.06,SE,135,0.0,0.0,80,0.00,,---,0.00,VWS V14.01,2013-11-18 12:58:00,
2013-11-18 08:00:00,76.3,68.9,30.06,SE,135,0.0,0.0,78,0.00,,---,0.00,VWS V14.01,2013-11-18 13:00:00,
2013-11-18 08:01:00,76.6,68.5,30.06,SE,135,0.0,0.0,76,0.00,,---,0.00,VWS V14.01,2013-11-18 13:01:00,
2013-11-18 08:02:00,76.8,68.3,30.06,SE,135,0.0,0.0,75,0.00,,---,0.00,VWS V14.01,2013-11-18 13:02:00,
2013-11-18 08:04:00,77.0,66.9,30.06,SSE,158,0.0,0.0,71,0.00,,---,0.00,VWS V14.01,2013-11-18 13:04:00,
2013-11-18 08:08:00,77.7,65.0,30.06,SE,135,0.0,0.0,65,0.00,,---,0.00,VWS V14.01,2013-11-18 13:08:00,
2013-11-18 08:10:00,77.9,62.0,30.06,SSE,158,0.0,0.0,58,0.00,,---,0.00,VWS V14.01,2013-11-18 13:10:00,
2013-11-18 08:12:00,78.1,58.0,30.06,ESE,112,0.0,0.0,50,0.00,,---,0.00,VWS V14.01,2013-11-18 13:12:00,
2013-11-18 08:13:00,78.1,57.4,30.06,ESE,112,0.0,0.0,49,0.00,,---,0.00,VWS V14.01,2013-11-18 13:13:00,
2013-11-18 08:17:00,79.0,55.8,30.06,ESE,112,0.0,0.0,45,0.00,,---,0.00,VWS V14.01,2013-11-18 13:17:00,
2013-11-18 08:18:00,79.2,55.4,30.06,ESE,112,0.0,0.0,44,0.00,,---,0.00,VWS V14.01,2013-11-18 13:18:00,
2013-11-18 08:20:00,79.5,55.1,30.06,SE,135,0.0,0.0,43,0.00,,---,0.00,VWS V14.01,2013-11-18 13:20:00,
2013-11-18 08:22:00,80.1,54.9,30.06,SE,135,0.0,0.0,42,0.00,,---,0.00,VWS V14.01,2013-11-18 13:22:00,
2013-11-18 08:25:00,81.0,56.4,30.06,SE,135,0.0,0.0,43,0.00,,---,0.00,VWS V14.01,2013-11-18 13:25:00,
2013-11-18 08:27:00,81.3,55.4,30.06,SSW,202,0.0,0.0,41,0.00,,---,0.00,VWS V14.01,2013-11-18 13:27:00,
2013-11-18 08:30:00,81.5,54.9,30.06,SSE,158,0.0,0.0,40,0.00,,---,0.00,VWS V14.01,2013-11-18 13:30:00,
2013-11-18 08:32:00,82.0,55.4,30.06,SE,135,0.0,0.0,40,0.00,,---,0.00,VWS V14.01,2013-11-18 13:32:00,
2013-11-18 08:35:00,82.2,52.6,30.06,SE,135,0.0,0.0,36,0.00,,---,0.00,VWS V14.01,2013-11-18 13:35:00,
2013-11-18 08:36:00,82.2,52.6,30.06,SW,225,0.0,0.0,36,0.00,,---,0.00,VWS V14.01,2013-11-18 13:36:00,
2013-11-18 08:37:00,82.2,51.9,30.06,SE,135,0.0,0.0,35,0.00,,---,0.00,VWS V14.01,2013-11-18 13:37:00,
2013-11-18 08:40:00,82.4,50.4,30.06,SSW,202,0.0,0.0,33,0.00,,---,0.00,VWS V14.01,2013-11-18 13:40:00,
2013-11-18 08:42:00,82.6,49.8,30.06,SSE,158,0.0,2.7,32,0.00,,---,0.00,VWS V14.01,2013-11-18 13:42:00,
2013-11-18 08:43:00,82.6,48.9,30.06,SSE,158,2.5,2.7,31,0.00,,---,0.00,VWS V14.01,2013-11-18 13:43:00,
2013-11-18 08:44:00,82.8,49.1,30.06,SSE,158,2.2,2.9,31,0.00,,---,0.00,VWS V14.01,2013-11-18 13:44:00,
2013-11-18 08:46:00,83.1,49.4,30.06,SSE,158,2.9,2.9,31,0.00,,---,0.00,VWS V14.01,2013-11-18 13:46:00,
2013-11-18 08:48:00,83.3,48.7,30.06,SSE,158,0.9,2.9,30,0.00,,---,0.00,VWS V14.01,2013-11-18 13:48:00,
2013-11-18 08:51:00,83.7,49.0,30.06,SSE,158,0.0,2.7,30,0.00,,---,0.00,VWS V14.01,2013-11-18 13:51:00,
2013-11-18 08:53:00,83.7,49.0,30.06,SSE,158,0.0,2.7,30,0.00,,---,0.00,VWS V14.01,2013-11-18 13:53:00,
2013-11-18 08:54:00,83.8,49.1,30.06,SSE,158,0.0,2.7,30,0.00,,---,0.00,VWS V14.01,2013-11-18 13:54:00,
2013-11-18 08:55:00,84.0,49.3,30.06,South,180,2.0,2.0,30,0.00,,---,0.00,VWS V14.01,2013-11-18 13:55:00,
2013-11-18 08:56:00,84.0,48.4,30.06,SSW,202,3.6,3.6,29,0.00,,---,0.00,VWS V14.01,2013-11-18 13:56:00,
2013-11-18 08:58:00,84.2,48.5,30.06,West,270,0.0,3.6,29,0.00,,---,0.00,VWS V14.01,2013-11-18 13:58:00,
2013-11-18 08:59:00,84.4,48.7,30.06,SW,225,0.0,3.6,29,0.00,,---,0.00,VWS V14.01,2013-11-18 13:59:00,
2013-11-18 09:00:00,84.6,48.8,30.06,SSE,158,3.4,3.4,29,0.00,,---,0.00,VWS V14.01,2013-11-18 14:00:00,
2013-11-18 09:02:00,84.7,49.0,30.06,SSE,158,1.6,3.6,29,0.00,,---,0.00,VWS V14.01,2013-11-18 14:02:00,
2013-11-18 09:03:00,84.9,48.2,30.06,SSE,158,2.7,3.6,28,0.00,,---,0.00,VWS V14.01,2013-11-18 14:03:00,
2013-11-18 09:04:00,84.9,48.2,30.06,SSE,158,0.0,3.6,28,0.00,,---,0.00,VWS V14.01,2013-11-18 14:04:00,
2013-11-18 09:07:00,85.1,47.4,30.06,SSE,158,0.0,0.9,27,0.00,,---,0.00,VWS V14.01,2013-11-18 14:07:00,
2013-11-18 09:10:00,85.1,47.4,30.06,SSE,158,2.0,4.3,27,0.00,,---,0.00,VWS V14.01,2013-11-18 14:10:00,
2013-11-18 09:12:00,85.6,47.9,30.06,SSE,158,0.0,2.0,27,0.00,,---,0.00,VWS V14.01,2013-11-18 14:12:00,
2013-11-18 09:15:00,85.6,45.8,30.06,SSE,158,1.3,4.3,25,0.00,,---,0.00,VWS V14.01,2013-11-18 14:15:00,
2013-11-18 09:16:00,85.5,44.6,30.06,SSE,158,3.8,4.7,24,0.00,,---,0.00,VWS V14.01,2013-11-18 14:16:00,
2013-11-18 09:20:00,85.3,44.4,30.06,WSW,248,4.9,4.9,24,0.00,,---,0.00,VWS V14.01,2013-11-18 14:20:00,
2013-11-18 09:22:00,85.5,44.6,30.09,WNW,292,1.3,4.9,24,0.00,,---,0.00,VWS V14.01,2013-11-18 14:22:00,
2013-11-18 09:24:00,85.5,43.5,30.09,WSW,248,2.0,5.4,23,0.00,,---,0.00,VWS V14.01,2013-11-18 14:24:00,
2013-11-18 09:25:00,85.6,43.6,30.09,SSW,202,3.4,5.4,23,0.00,,---,0.00,VWS V14.01,2013-11-18 14:25:00,
2013-11-18 09:26:00,86.0,43.9,30.09,WNW,292,2.9,3.4,23,0.00,,---,0.00,VWS V14.01,2013-11-18 14:26:00,
2013-11-18 09:27:00,86.2,44.1,30.09,WSW,248,2.5,3.4,23,0.00,,---,0.00,VWS V14.01,2013-11-18 14:27:00,
2013-11-18 09:29:00,85.6,43.6,30.09,WSW,248,4.0,4.9,23,0.00,,---,0.00,VWS V14.01,2013-11-18 14:29:00,
2013-11-18 09:30:00,85.6,42.5,30.09,WSW,248,4.3,4.9,22,0.00,,---,0.00,VWS V14.01,2013-11-18 14:30:00,
2013-11-18 09:32:00,85.1,42.0,30.09,WSW,248,3.8,5.4,22,0.00,,---,0.00,VWS V14.01,2013-11-18 14:32:00,
2013-11-18 09:34:00,85.3,42.2,30.09,WSW,248,3.4,5.4,22,0.00,,---,0.00,VWS V14.01,2013-11-18 14:34:00,
2013-11-18 09:36:00,85.6,43.6,30.09,WSW,248,4.5,4.5,23,0.00,,---,0.00,VWS V14.01,2013-11-18 14:36:00,
2013-11-18 09:37:00,85.5,42.3,30.09,WNW,292,4.9,5.4,22,0.00,,---,0.00,VWS V14.01,2013-11-18 14:37:00,
2013-11-18 09:40:00,85.6,42.5,30.09,WSW,248,2.9,5.6,22,0.00,,---,0.00,VWS V14.01,2013-11-18 14:40:00,
2013-11-18 09:41:00,85.5,42.3,30.09,SW,225,3.8,3.8,22,0.00,,---,0.00,VWS V14.01,2013-11-18 14:41:00,
2013-11-18 09:42:00,85.6,43.6,30.09,SSW,202,2.7,3.8,23,0.00,,---,0.00,VWS V14.01,2013-11-18 14:42:00,
2013-11-18 09:43:00,85.8,42.6,30.09,WSW,248,0.9,3.8,22,0.00,,---,0.00,VWS V14.01,2013-11-18 14:43:00,
2013-11-18 09:44:00,85.6,42.5,30.09,SW,225,2.7,4.0,22,0.00,,---,0.00,VWS V14.01,2013-11-18 14:44:00,
2013-11-18 09:48:00,86.4,43.1,30.09,SSW,202,0.0,4.0,22,0.00,,---,0.00,VWS V14.01,2013-11-18 14:48:00,
2013-11-18 09:49:00,86.2,42.9,30.09,WSW,248,3.6,4.3,22,0.00,,---,0.00,VWS V14.01,2013-11-18 14:49:00,
2013-11-18 09:50:00,86.4,43.1,30.09,South,180,1.3,4.3,22,0.00,,---,0.00,VWS V14.01,2013-11-18 14:50:00,
2013-11-18 09:53:00,86.4,43.1,30.09,South,180,2.5,3.1,22,0.00,,---,0.00,VWS V14.01,2013-11-18 14:53:00,
2013-11-18 09:54:00,86.5,43.2,30.09,SSW,202,2.5,3.1,22,0.00,,---,0.00,VWS V14.01,2013-11-18 14:54:00,
2013-11-18 09:55:00,86.5,43.2,30.09,SSW,202,2.5,5.4,22,0.00,,---,0.00,VWS V14.01,2013-11-18 14:55:00,
2013-11-18 09:58:00,86.0,41.6,30.09,South,180,2.9,6.0,21,0.00,,---,0.00,VWS V14.01,2013-11-18 14:58:00,
2013-11-18 09:59:00,86.2,41.7,30.09,SW,225,4.0,6.0,21,0.00,,---,0.00,VWS V14.01,2013-11-18 14:59:00,
2013-11-18 10:00:00,86.4,41.9,30.09,WSW,248,1.6,6.0,21,0.00,,---,0.00,VWS V14.01,2013-11-18 15:00:00,
2013-11-18 10:02:00,86.5,42.0,30.09,SSW,202,2.7,3.6,21,0.00,,---,0.00,VWS V14.01,2013-11-18 15:02:00,
2013-11-18 10:03:00,86.2,41.7,30.09,WSW,248,3.4,3.6,21,0.00,,---,0.00,VWS V14.01,2013-11-18 15:03:00,
2013-11-18 10:05:00,86.2,41.7,30.09,SSW,202,2.7,7.4,21,0.00,,---,0.00,VWS V14.01,2013-11-18 15:05:00,
2013-11-18 10:07:00,86.4,41.9,30.09,WSW,248,0.0,3.4,21,0.00,,---,0.00,VWS V14.01,2013-11-18 15:07:00,
2013-11-18 10:10:00,86.4,41.9,30.09,West,270,5.8,5.8,21,0.00,,---,0.00,VWS V14.01,2013-11-18 15:10:00,
2013-11-18 10:13:00,86.9,42.3,30.09,NNW,338,3.4,5.8,21,0.00,,---,0.00,VWS V14.01,2013-11-18 15:13:00,
2013-11-18 10:15:00,86.7,42.2,30.09,WSW,248,3.1,5.8,21,0.00,,---,0.00,VWS V14.01,2013-11-18 15:15:00,
2013-11-18 10:17:00,86.2,41.7,30.09,WSW,248,4.9,6.0,21,0.00,,---,0.00,VWS V14.01,2013-11-18 15:17:00,
2013-11-18 10:18:00,86.0,40.3,30.09,SSW,202,3.8,6.5,20,0.00,,---,0.00,VWS V14.01,2013-11-18 15:18:00,
2013-11-18 10:19:00,86.0,41.6,30.09,SW,225,6.0,6.5,21,0.00,,---,0.00,VWS V14.01,2013-11-18 15:19:00,
2013-11-18 10:23:00,86.0,41.6,30.09,WNW,292,2.0,6.5,21,0.00,,---,0.00,VWS V14.01,2013-11-18 15:23:00,
2013-11-18 10:25:00,86.0,41.6,30.09,WSW,248,5.6,6.5,21,0.00,,---,0.00,VWS V14.01,2013-11-18 15:25:00,
2013-11-18 10:28:00,86.4,41.9,30.09,SW,225,3.1,6.5,21,0.00,,---,0.00,VWS V14.01,2013-11-18 15:28:00,
2013-11-18 10:30:00,86.2,40.5,30.09,SW,225,3.4,3.4,20,0.00,,---,0.00,VWS V14.01,2013-11-18 15:30:00,
2013-11-18 10:31:00,86.2,40.5,30.09,SW,225,6.0,6.0,20,0.00,,---,0.00,VWS V14.01,2013-11-18 15:31:00,
2013-11-18 10:32:00,86.2,40.5,30.09,SW,225,2.2,7.6,20,0.00,,---,0.00,VWS V14.01,2013-11-18 15:32:00,
2013-11-18 10:34:00,85.6,41.3,30.09,West,270,3.8,7.6,21,0.00,,---,0.00,VWS V14.01,2013-11-18 15:34:00,
2013-11-18 10:36:00,85.5,41.1,30.09,WSW,248,3.1,7.4,21,0.00,,---,0.00,VWS V14.01,2013-11-18 15:36:00,
2013-11-18 10:40:00,86.7,42.2,30.09,WSW,248,2.0,7.4,21,0.00,,---,0.00,VWS V14.01,2013-11-18 15:40:00,
2013-11-18 10:41:00,86.7,42.2,30.09,South,180,8.1,8.1,21,0.00,,---,0.00,VWS V14.01,2013-11-18 15:41:00,
2013-11-18 10:43:00,85.8,41.4,30.09,WNW,292,4.9,8.7,21,0.00,,---,0.00,VWS V14.01,2013-11-18 15:43:00,
2013-11-18 10:44:00,85.8,41.4,30.09,SW,225,2.7,8.7,21,0.00,,---,0.00,VWS V14.01,2013-11-18 15:44:00,
2013-11-18 10:45:00,86.0,40.3,30.09,SSW,202,3.4,8.7,20,0.00,,---,0.00,VWS V14.01,2013-11-18 15:45:00,
2013-11-18 10:47:00,86.7,42.2,30.09,WSW,248,4.0,4.9,21,0.00,,---,0.00,VWS V14.01,2013-11-18 15:47:00,
2013-11-18 10:48:00,86.7,42.2,30.09,SSE,158,3.1,4.9,21,0.00,,---,0.00,VWS V14.01,2013-11-18 15:48:00,
2013-11-18 10:49:00,87.1,42.5,30.09,SW,225,0.0,4.9,21,0.00,,---,0.00,VWS V14.01,2013-11-18 15:49:00,
2013-11-18 10:53:00,87.4,42.8,30.09,WNW,292,1.3,5.6,21,0.00,,---,0.00,VWS V14.01,2013-11-18 15:53:00,
2013-11-18 10:54:00,87.6,41.6,30.09,SSW,202,3.1,5.6,20,0.00,,---,0.00,VWS V14.01,2013-11-18 15:54:00,
2013-11-18 10:55:00,87.1,41.2,30.09,NNW,338,2.7,5.6,20,0.00,,---,0.00,VWS V14.01,2013-11-18 15:55:00,
2013-11-18 10:57:00,86.7,40.9,30.09,WSW,248,4.3,6.5,20,0.00,,---,0.00,VWS V14.01,2013-11-18 15:57:00,
2013-11-18 11:00:00,86.7,40.9,30.09,SW,225,4.3,7.8,20,0.00,,---,0.00,VWS V14.01,2013-11-18 16:00:00,
2013-11-18 11:01:00,86.5,40.8,30.09,South,180,5.4,6.0,20,0.00,,---,0.00,VWS V14.01,2013-11-18 16:01:00,
2013-11-18 11:02:00,86.4,40.6,30.09,SSW,202,3.6,7.2,20,0.00,,---,0.00,VWS V14.01,2013-11-18 16:02:00,
2013-11-18 11:03:00,86.2,40.5,30.09,SSW,202,4.9,7.8,20,0.00,,---,0.00,VWS V14.01,2013-11-18 16:03:00,
2013-11-18 11:04:00,86.4,40.6,30.09,SSW,202,5.4,7.8,20,0.00,,---,0.00,VWS V14.01,2013-11-18 16:04:00,
2013-11-18 11:06:00,86.7,40.9,30.06,WSW,248,2.2,4.9,20,0.00,,---,0.00,VWS V14.01,2013-11-18 16:06:00,
2013-11-18 11:07:00,86.7,40.9,30.06,WNW,292,3.1,4.9,20,0.00,,---,0.00,VWS V14.01,2013-11-18 16:07:00,
2013-11-18 11:09:00,87.1,41.2,30.06,West,270,7.2,7.2,20,0.00,,---,0.00,VWS V14.01,2013-11-18 16:09:00,
2013-11-18 11:10:00,87.1,41.2,30.06,SSE,158,2.7,3.1,20,0.00,,---,0.00,VWS V14.01,2013-11-18 16:10:00,
2013-11-18 11:13:00,87.1,41.2,30.06,SSW,202,1.3,6.3,20,0.00,,---,0.00,VWS V14.01,2013-11-18 16:13:00,
2013-11-18 11:14:00,87.3,41.3,30.06,SSW,202,4.0,6.3,20,0.00,,---,0.00,VWS V14.01,2013-11-18 16:14:00,
2013-11-18 11:16:00,87.3,41.3,30.06,WSW,248,4.3,5.8,20,0.00,,---,0.00,VWS V14.01,2013-11-18 16:16:00,
2013-11-18 11:17:00,87.4,41.5,30.06,West,270,3.1,5.8,20,0.00,,---,0.00,VWS V14.01,2013-11-18 16:17:00,
2013-11-18 11:18:00,87.4,41.5,30.06,SW,225,5.8,5.8,20,0.00,,---,0.00,VWS V14.01,2013-11-18 16:18:00,
2013-11-18 11:20:00,87.8,41.8,30.06,WNW,292,0.9,5.8,20,0.00,,---,0.00,VWS V14.01,2013-11-18 16:20:00,
2013-11-18 11:23:00,88.0,40.6,30.06,WNW,292,3.8,6.5,19,0.00,,---,0.00,VWS V14.01,2013-11-18 16:23:00,
2013-11-18 11:24:00,88.2,40.8,30.06,South,180,3.1,6.5,19,0.00,,---,0.00,VWS V14.01,2013-11-18 16:24:00,
2013-11-18 11:25:00,88.0,40.6,30.06,SSW,202,3.1,3.8,19,0.00,,---,0.00,VWS V14.01,2013-11-18 16:25:00,
2013-11-18 11:26:00,88.0,40.6,30.06,SSW,202,2.5,3.8,19,0.00,,---,0.00,VWS V14.01,2013-11-18 16:26:00,
2013-11-18 11:27:00,88.0,40.6,30.06,SW,225,2.9,4.9,19,0.00,,---,0.00,VWS V14.01,2013-11-18 16:27:00,
2013-11-18 11:28:00,88.2,40.8,30.06,SSW,202,5.4,5.4,19,0.00,,---,0.00,VWS V14.01,2013-11-18 16:28:00,
2013-11-18 11:30:00,88.0,40.6,30.06,WSW,248,4.7,5.4,19,0.00,,---,0.00,VWS V14.01,2013-11-18 16:30:00,
2013-11-18 11:33:00,87.8,40.5,30.06,WSW,248,2.0,7.8,19,0.00,,---,0.00,VWS V14.01,2013-11-18 16:33:00,
2013-11-18 11:35:00,87.4,41.5,30.06,WNW,292,5.6,7.8,20,0.00,,---,0.00,VWS V14.01,2013-11-18 16:35:00,
2013-11-18 11:36:00,87.6,41.6,30.06,WNW,292,5.6,5.6,20,0.00,,---,0.00,VWS V14.01,2013-11-18 16:36:00,
2013-11-18 11:37:00,87.3,41.3,30.06,WSW,248,4.3,5.6,20,0.00,,---,0.00,VWS V14.01,2013-11-18 16:37:00,
2013-11-18 11:39:00,87.3,40.0,30.06,SSE,158,3.4,5.6,19,0.00,,---,0.00,VWS V14.01,2013-11-18 16:39:00,
2013-11-18 11:41:00,87.3,41.3,30.06,SW,225,3.1,3.8,20,0.00,,---,0.00,VWS V14.01,2013-11-18 16:41:00,
2013-11-18 11:42:00,87.1,41.2,30.06,WSW,248,4.9,7.6,20,0.00,,---,0.00,VWS V14.01,2013-11-18 16:42:00,
2013-11-18 11:43:00,87.1,41.2,30.06,West,270,6.0,7.6,20,0.00,,---,0.00,VWS V14.01,2013-11-18 16:43:00,
2013-11-18 11:46:00,87.1,41.2,30.06,WSW,248,7.6,7.6,20,0.00,,---,0.00,VWS V14.01,2013-11-18 16:46:00,
2013-11-18 11:47:00,87.1,39.9,30.06,SSW,202,4.0,7.6,19,0.00,,---,0.00,VWS V14.01,2013-11-18 16:47:00,
2013-11-18 11:49:00,87.1,39.9,30.06,SSW,202,6.3,7.6,19,0.00,,---,0.00,VWS V14.01,2013-11-18 16:49:00,
2013-11-18 11:50:00,87.1,41.2,30.06,WSW,248,0.0,7.6,20,0.00,,---,0.00,VWS V14.01,2013-11-18 16:50:00,
2013-11-18 11:51:00,87.3,41.3,30.06,WSW,248,3.6,5.6,20,0.00,,---,0.00,VWS V14.01,2013-11-18 16:51:00,
2013-11-18 11:53:00,87.4,41.5,30.06,SW,225,2.0,6.3,20,0.00,,---,0.00,VWS V14.01,2013-11-18 16:53:00,
2013-11-18 11:55:00,87.6,41.6,30.06,SSW,202,5.6,7.2,20,0.00,,---,0.00,VWS V14.01,2013-11-18 16:55:00,
2013-11-18 11:56:00,87.3,40.0,30.06,SSE,158,4.9,7.4,19,0.00,,---,0.00,VWS V14.01,2013-11-18 16:56:00,
2013-11-18 11:57:00,87.1,39.9,30.06,WSW,248,6.0,8.5,19,0.00,,---,0.00,VWS V14.01,2013-11-18 16:57:00,
2013-11-18 11:58:00,86.9,39.7,30.06,WSW,248,8.1,8.5,19,0.00,,---,0.00,VWS V14.01,2013-11-18 16:58:00,
2013-11-18 11:59:00,87.1,39.9,30.06,SSW,202,1.3,8.5,19,0.00,,---,0.00,VWS V14.01,2013-11-18 16:59:00,
2013-11-18 12:00:00,87.1,39.9,30.06,SSW,202,5.8,8.5,19,0.00,,---,0.00,VWS V14.01,2013-11-18 17:00:00,
2013-11-18 12:02:00,87.6,40.3,30.06,SSW,202,2.7,6.0,19,0.00,,---,0.00,VWS V14.01,2013-11-18 17:02:00,
2013-11-18 12:03:00,88.0,40.6,30.06,WSW,248,4.3,6.0,19,0.00,,---,0.00,VWS V14.01,2013-11-18 17:03:00,
2013-11-18 12:05:00,87.3,40.0,30.06,WSW,248,4.0,4.7,19,0.00,,---,0.00,VWS V14.01,2013-11-18 17:05:00,
2013-11-18 12:07:00,87.1,39.9,30.06,WNW,292,6.7,8.7,19,0.00,,---,0.00,VWS V14.01,2013-11-18 17:07:00,
2013-11-18 12:10:00,86.5,39.4,30.06,WNW,292,4.0,9.8,19,0.00,,---,0.00,VWS V14.01,2013-11-18 17:10:00,
2013-11-18 12:12:00,86.5,39.4,30.06,WSW,248,2.5,7.6,19,0.00,,---,0.00,VWS V14.01,2013-11-18 17:12:00,
2013-11-18 12:15:00,86.7,39.6,30.06,SSW,202,3.4,7.6,19,0.00,,---,0.00,VWS V14.01,2013-11-18 17:15:00,
2013-11-18 12:16:00,87.1,39.9,30.06,WSW,248,5.8,5.8,19,0.00,,---,0.00,VWS V14.01,2013-11-18 17:16:00,
2013-11-18 12:17:00,86.9,39.7,30.06,WNW,292,6.5,6.5,19,0.00,,---,0.00,VWS V14.01,2013-11-18 17:17:00,
2013-11-18 12:18:00,86.7,39.6,30.06,SSW,202,6.3,6.7,19,0.00,,---,0.00,VWS V14.01,2013-11-18 17:18:00,
2013-11-18 12:19:00,86.5,39.4,30.06,SSW,202,6.3,7.8,19,0.00,,---,0.00,VWS V14.01,2013-11-18 17:19:00,
2013-11-18 12:23:00,86.7,39.6,30.06,WNW,292,2.7,7.8,19,0.00,,---,0.00,VWS V14.01,2013-11-18 17:23:00,
2013-11-18 12:24:00,86.9,39.7,30.06,WNW,292,8.5,8.5,19,0.00,,---,0.00,VWS V14.01,2013-11-18 17:24:00,
2013-11-18 12:25:00,86.9,39.7,30.06,West,270,4.9,8.5,19,0.00,,---,0.00,VWS V14.01,2013-11-18 17:25:00,
2013-11-18 12:26:00,86.7,39.6,30.06,WNW,292,7.6,7.6,19,0.00,,---,0.00,VWS V14.01,2013-11-18 17:26:00,
2013-11-18 12:27:00,86.5,39.4,30.06,WNW,292,5.6,7.6,19,0.00,,---,0.00,VWS V14.01,2013-11-18 17:27:00,
2013-11-18 12:29:00,86.5,39.4,30.06,WSW,248,4.3,7.6,19,0.00,,---,0.00,VWS V14.01,2013-11-18 17:29:00,
2013-11-18 12:32:00,86.9,39.7,30.06,SW,225,5.6,6.0,19,0.00,,---,0.00,VWS V14.01,2013-11-18 17:32:00,
2013-11-18 12:33:00,86.9,39.7,30.06,WSW,248,1.3,6.0,19,0.00,,---,0.00,VWS V14.01,2013-11-18 17:33:00,
2013-11-18 12:35:00,87.1,39.9,30.06,WSW,248,3.6,7.4,19,0.00,,---,0.00,VWS V14.01,2013-11-18 17:35:00,
2013-11-18 12:36:00,87.1,39.9,30.06,West,270,7.4,7.4,19,0.00,,---,0.00,VWS V14.01,2013-11-18 17:36:00,
2013-11-18 12:38:00,87.3,40.0,30.06,West,270,8.5,8.5,19,0.00,,---,0.00,VWS V14.01,2013-11-18 17:38:00,
2013-11-18 12:40:00,86.7,39.6,30.06,South,180,6.5,8.5,19,0.00,,---,0.00,VWS V14.01,2013-11-18 17:40:00,
2013-11-18 12:41:00,86.9,39.7,30.06,WNW,292,4.3,6.5,19,0.00,,---,0.00,VWS V14.01,2013-11-18 17:41:00,
2013-11-18 12:43:00,87.1,39.9,30.06,WSW,248,4.9,6.5,19,0.00,,---,0.00,VWS V14.01,2013-11-18 17:43:00,
2013-11-18 12:46:00,86.5,39.4,30.06,West,270,6.3,7.6,19,0.00,,---,0.00,VWS V14.01,2013-11-18 17:46:00,
2013-11-18 12:48:00,86.7,39.6,30.06,WNW,292,5.4,8.1,19,0.00,,---,0.00,VWS V14.01,2013-11-18 17:48:00,
2013-11-18 12:49:00,86.9,39.7,30.06,SSW,202,2.9,8.1,19,0.00,,---,0.00,VWS V14.01,2013-11-18 17:49:00,
2013-11-18 12:50:00,87.8,40.5,30.06,WNW,292,3.8,8.1,19,0.00,,---,0.00,VWS V14.01,2013-11-18 17:50:00,
2013-11-18 12:51:00,88.2,40.8,30.06,WNW,292,4.3,4.7,19,0.00,,---,0.00,VWS V14.01,2013-11-18 17:51:00,
2013-11-18 12:52:00,88.2,40.8,30.03,WSW,248,4.3,5.4,19,0.00,,---,0.00,VWS V14.01,2013-11-18 17:52:00,
2013-11-18 12:54:00,88.2,40.8,30.03,WSW,248,3.6,6.0,19,0.00,,---,0.00,VWS V14.01,2013-11-18 17:54:00,
2013-11-18 12:55:00,88.2,40.8,30.03,WNW,292,6.3,6.3,19,0.00,,---,0.00,VWS V14.01,2013-11-18 17:55:00,
2013-11-18 12:56:00,88.2,40.8,30.03,WSW,248,2.9,6.3,19,0.00,,---,0.00,VWS V14.01,2013-11-18 17:56:00,
2013-11-18 12:58:00,87.6,40.3,30.03,NNW,338,6.3,6.3,19,0.00,,---,0.00,VWS V14.01,2013-11-18 17:58:00,
2013-11-18 13:00:00,87.1,39.9,30.03,WNW,292,3.1,9.8,19,0.00,,---,0.00,VWS V14.01,2013-11-18 18:00:00,
2013-11-18 13:02:00,87.3,40.0,30.03,WSW,248,4.7,8.7,19,0.00,,---,0.00,VWS V14.01,2013-11-18 18:02:00,
2013-11-18 13:04:00,87.1,39.9,30.03,WNW,292,7.4,8.7,19,0.00,,---,0.00,VWS V14.01,2013-11-18 18:04:00,
2013-11-18 13:05:00,86.9,39.7,30.03,WSW,248,5.6,8.7,19,0.00,,---,0.00,VWS V14.01,2013-11-18 18:05:00,
2013-11-18 13:07:00,86.7,39.6,30.03,WNW,292,3.1,7.8,19,0.00,,---,0.00,VWS V14.01,2013-11-18 18:07:00,
2013-11-18 13:10:00,86.9,39.7,30.03,WSW,248,10.1,10.5,19,0.00,,---,0.00,VWS V14.01,2013-11-18 18:10:00,
2013-11-18 13:11:00,86.2,39.1,30.03,WSW,248,4.3,10.1,19,0.00,,---,0.00,VWS V14.01,2013-11-18 18:11:00,
2013-11-18 13:12:00,86.5,39.4,30.03,WSW,248,6.3,10.1,19,0.00,,---,0.00,VWS V14.01,2013-11-18 18:12:00,
2013-11-18 13:13:00,86.7,39.6,30.03,WNW,292,3.4,10.1,19,0.00,,---,0.00,VWS V14.01,2013-11-18 18:13:00,
2013-11-18 13:15:00,86.9,39.7,30.03,WSW,248,6.0,10.1,19,0.00,,---,0.00,VWS V14.01,2013-11-18 18:15:00,
2013-11-18 13:16:00,86.4,39.3,30.03,SW,225,4.7,9.2,19,0.00,,---,0.00,VWS V14.01,2013-11-18 18:16:00,
2013-11-18 13:17:00,86.2,39.1,30.03,SSW,202,6.9,9.6,19,0.00,,---,0.00,VWS V14.01,2013-11-18 18:17:00,
2013-11-18 13:18:00,86.5,39.4,30.03,NNW,338,7.8,10.5,19,0.00,,---,0.00,VWS V14.01,2013-11-18 18:18:00,
2013-11-18 13:20:00,86.2,39.1,30.03,NNE,22,4.3,10.5,19,0.00,,---,0.00,VWS V14.01,2013-11-18 18:20:00,
2013-11-18 13:21:00,86.0,39.0,30.03,WSW,248,3.1,7.6,19,0.00,,---,0.00,VWS V14.01,2013-11-18 18:21:00,
2013-11-18 13:22:00,86.0,39.0,30.03,WSW,248,8.1,9.8,19,0.00,,---,0.00,VWS V14.01,2013-11-18 18:22:00,
2013-11-18 13:23:00,85.8,40.2,30.03,WSW,248,5.4,9.8,20,0.00,,---,0.00,VWS V14.01,2013-11-18 18:23:00,
2013-11-18 13:24:00,85.5,39.9,30.03,WSW,248,7.6,10.7,20,0.00,,---,0.00,VWS V14.01,2013-11-18 18:24:00,
2013-11-18 13:28:00,85.3,39.7,30.03,WSW,248,5.6,8.7,20,0.00,,---,0.00,VWS V14.01,2013-11-18 18:28:00,
2013-11-18 13:30:00,85.6,40.0,30.03,WNW,292,4.7,8.7,20,0.00,,---,0.00,VWS V14.01,2013-11-18 18:30:00,
2013-11-18 13:31:00,85.8,40.2,30.03,WNW,292,7.8,7.8,20,0.00,,---,0.00,VWS V14.01,2013-11-18 18:31:00,
2013-11-18 13:32:00,86.0,39.0,30.03,West,270,7.6,7.8,19,0.00,,---,0.00,VWS V14.01,2013-11-18 18:32:00,
2013-11-18 13:34:00,85.1,39.6,30.03,WNW,292,9.8,12.3,20,0.00,,---,0.00,VWS V14.01,2013-11-18 18:34:00,
2013-11-18 13:37:00,84.9,39.4,30.03,WSW,248,7.8,10.1,20,0.00,,---,0.00,VWS V14.01,2013-11-18 18:37:00,
2013-11-18 13:38:00,85.1,39.6,30.03,WNW,292,3.4,10.1,20,0.00,,---,0.00,VWS V14.01,2013-11-18 18:38:00,
2013-11-18 13:39:00,85.5,39.9,30.03,WSW,248,5.6,10.1,20,0.00,,---,0.00,VWS V14.01,2013-11-18 18:39:00,
2013-11-18 13:40:00,85.5,39.9,30.03,WSW,248,5.4,10.1,20,0.00,,---,0.00,VWS V14.01,2013-11-18 18:40:00,
2013-11-18 13:41:00,86.0,39.0,30.03,North,0,1.3,6.0,19,0.00,,---,0.00,VWS V14.01,2013-11-18 18:41:00,
2013-11-18 13:42:00,86.2,39.1,30.03,WNW,292,4.3,6.0,19,0.00,,---,0.00,VWS V14.01,2013-11-18 18:42:00,
2013-11-18 13:45:00,86.4,39.3,30.03,NNW,338,5.6,5.6,19,0.00,,---,0.00,VWS V14.01,2013-11-18 18:45:00,
2013-11-18 13:47:00,86.2,39.1,30.03,West,270,7.4,7.6,19,0.00,,---,0.00,VWS V14.01,2013-11-18 18:47:00,
2013-11-18 13:48:00,86.2,39.1,30.03,SW,225,3.8,7.6,19,0.00,,---,0.00,VWS V14.01,2013-11-18 18:48:00,
2013-11-18 13:49:00,86.4,39.3,30.03,West,270,3.1,7.6,19,0.00,,---,0.00,VWS V14.01,2013-11-18 18:49:00,
2013-11-18 13:50:00,86.2,39.1,30.03,NW,315,8.5,8.5,19,0.00,,---,0.00,VWS V14.01,2013-11-18 18:50:00,
2013-11-18 13:52:00,85.8,40.2,30.03,WSW,248,7.8,8.5,20,0.00,,---,0.00,VWS V14.01,2013-11-18 18:52:00,
2013-11-18 13:53:00,86.0,39.0,30.03,WNW,292,4.3,8.5,19,0.00,,---,0.00,VWS V14.01,2013-11-18 18:53:00,
2013-11-18 13:55:00,86.2,39.1,30.03,WSW,248,2.9,2.9,19,0.00,,---,0.00,VWS V14.01,2013-11-18 18:55:00,
2013-11-18 13:56:00,86.2,39.1,30.03,West,270,5.6,9.0,19,0.00,,---,0.00,VWS V14.01,2013-11-18 18:56:00,
2013-11-18 13:59:00,85.8,40.2,30.03,SW,225,3.1,9.6,20,0.00,,---,0.00,VWS V14.01,2013-11-18 18:59:00,
2013-11-18 14:00:00,86.0,39.0,30.03,WNW,292,4.9,4.9,19,0.00,,---,0.00,VWS V14.01,2013-11-18 19:00:00,
2013-11-18 14:03:00,86.4,39.3,30.03,NW,315,6.3,7.8,19,0.00,,---,0.00,VWS V14.01,2013-11-18 19:03:00,
2013-11-18 14:04:00,85.8,40.2,30.03,WNW,292,7.6,10.3,20,0.00,,---,0.00,VWS V14.01,2013-11-18 19:04:00,
2013-11-18 14:05:00,85.6,40.0,30.03,NNW,338,8.5,10.3,20,0.00,,---,0.00,VWS V14.01,2013-11-18 19:05:00,
2013-11-18 14:09:00,84.9,38.1,30.03,West,270,8.7,11.0,19,0.00,,---,0.00,VWS V14.01,2013-11-18 19:09:00,
2013-11-18 14:10:00,84.7,39.3,30.03,WNW,292,6.5,11.0,20,0.00,,---,0.00,VWS V14.01,2013-11-18 19:10:00,
2013-11-18 14:12:00,85.5,39.9,30.03,WNW,292,3.8,6.5,20,0.00,,---,0.00,VWS V14.01,2013-11-18 19:12:00,
2013-11-18 14:15:00,84.7,39.3,30.03,WNW,292,5.4,13.0,20,0.00,,---,0.00,VWS V14.01,2013-11-18 19:15:00,
2013-11-18 14:16:00,84.4,39.0,30.03,WSW,248,8.7,9.0,20,0.00,,---,0.00,VWS V14.01,2013-11-18 19:16:00,
2013-11-18 14:18:00,84.6,39.1,30.03,SSW,202,3.6,10.5,20,0.00,,---,0.00,VWS V14.01,2013-11-18 19:18:00,
2013-11-18 14:19:00,84.7,39.3,30.03,WSW,248,4.7,10.5,20,0.00,,---,0.00,VWS V14.01,2013-11-18 19:19:00,
2013-11-18 14:24:00,85.5,39.9,30.00,WSW,248,6.3,7.8,20,0.00,,---,0.00,VWS V14.01,2013-11-18 19:24:00,
2013-11-18 14:25:00,85.5,39.9,30.00,WSW,248,5.8,7.8,20,0.00,,---,0.00,VWS V14.01,2013-11-18 19:25:00,
2013-11-18 14:26:00,85.5,39.9,30.00,WSW,248,7.6,7.6,20,0.00,,---,0.00,VWS V14.01,2013-11-18 19:26:00,
2013-11-18 14:27:00,85.3,39.7,30.00,NNW,338,5.4,8.1,20,0.00,,---,0.00,VWS V14.01,2013-11-18 19:27:00,
2013-11-18 14:29:00,85.1,39.6,30.00,NW,315,4.3,10.7,20,0.00,,---,0.00,VWS V14.01,2013-11-18 19:29:00,
2013-11-18 14:30:00,85.3,39.7,30.00,WNW,292,7.8,7.8,20,0.00,,---,0.00,VWS V14.01,2013-11-18 19:30:00,
2013-11-18 14:31:00,85.1,39.6,30.00,WNW,292,6.3,7.8,20,0.00,,---,0.00,VWS V14.01,2013-11-18 19:31:00,
2013-11-18 14:32:00,85.3,39.7,30.00,WSW,248,2.0,7.8,20,0.00,,---,0.00,VWS V14.01,2013-11-18 19:32:00,
2013-11-18 14:35:00,85.5,39.9,30.00,WNW,292,6.5,8.5,20,0.00,,---,0.00,VWS V14.01,2013-11-18 19:35:00,
2013-11-18 14:36:00,85.8,40.2,30.00,WSW,248,3.8,6.5,20,0.00,,---,0.00,VWS V14.01,2013-11-18 19:36:00,
2013-11-18 14:37:00,86.0,39.0,30.00,NW,315,0.9,6.5,19,0.00,,---,0.00,VWS V14.01,2013-11-18 19:37:00,
2013-11-18 14:39:00,86.2,39.1,30.00,WNW,292,2.9,6.5,19,0.00,,---,0.00,VWS V14.01,2013-11-18 19:39:00,
2013-11-18 14:40:00,86.2,39.1,30.00,SSW,202,3.4,6.5,19,0.00,,---,0.00,VWS V14.01,2013-11-18 19:40:00,
2013-11-18 14:41:00,86.2,39.1,30.00,South,180,6.0,7.6,19,0.00,,---,0.00,VWS V14.01,2013-11-18 19:41:00,
2013-11-18 14:43:00,86.4,39.3,30.00,SSW,202,1.3,7.6,19,0.00,,---,0.00,VWS V14.01,2013-11-18 19:43:00,
2013-11-18 14:44:00,86.5,39.4,30.00,NNW,338,5.8,9.8,19,0.00,,---,0.00,VWS V14.01,2013-11-18 19:44:00,
2013-11-18 14:46:00,86.0,39.0,30.00,NNW,338,6.5,7.4,19,0.00,,---,0.00,VWS V14.01,2013-11-18 19:46:00,
2013-11-18 14:47:00,86.2,39.1,30.00,NNW,338,3.6,7.4,19,0.00,,---,0.00,VWS V14.01,2013-11-18 19:47:00,
2013-11-18 14:48:00,86.2,39.1,30.00,WSW,248,4.3,7.4,19,0.00,,---,0.00,VWS V14.01,2013-11-18 19:48:00,
2013-11-18 14:49:00,86.4,39.3,30.00,WSW,248,2.5,7.4,19,0.00,,---,0.00,VWS V14.01,2013-11-18 19:49:00,
2013-11-18 14:52:00,85.6,38.7,30.00,WSW,248,2.5,7.4,19,0.00,,---,0.00,VWS V14.01,2013-11-18 19:52:00,
2013-11-18 14:53:00,85.6,38.7,30.00,WSW,248,4.7,7.8,19,0.00,,---,0.00,VWS V14.01,2013-11-18 19:53:00,
2013-11-18 14:54:00,85.3,39.7,30.00,WNW,292,2.2,7.8,20,0.00,,---,0.00,VWS V14.01,2013-11-18 19:54:00,
2013-11-18 14:55:00,85.3,39.7,30.00,WSW,248,3.6,7.8,20,0.00,,---,0.00,VWS V14.01,2013-11-18 19:55:00,
2013-11-18 14:58:00,84.2,38.8,30.00,WSW,248,2.5,7.2,20,0.00,,---,0.00,VWS V14.01,2013-11-18 19:58:00,
2013-11-18 14:59:00,84.2,38.8,30.00,West,270,4.3,7.2,20,0.00,,---,0.00,VWS V14.01,2013-11-18 19:59:00,
2013-11-18 15:01:00,83.7,38.4,30.00,WNW,292,3.8,5.6,20,0.00,,---,0.00,VWS V14.01,2013-11-18 20:01:00,
2013-11-18 15:02:00,83.5,38.2,30.00,WSW,248,6.5,6.5,20,0.00,,---,0.00,VWS V14.01,2013-11-18 20:02:00,
2013-11-18 15:03:00,83.5,38.2,30.00,SW,225,0.0,6.5,20,0.00,,---,0.00,VWS V14.01,2013-11-18 20:03:00,
2013-11-18 15:04:00,83.7,38.4,30.00,WSW,248,4.3,6.5,20,0.00,,---,0.00,VWS V14.01,2013-11-18 20:04:00,
2013-11-18 15:05:00,84.0,38.7,30.00,SSW,202,3.4,6.5,20,0.00,,---,0.00,VWS V14.01,2013-11-18 20:05:00,
2013-11-18 15:07:00,84.6,39.1,30.00,WNW,292,3.4,6.0,20,0.00,,---,0.00,VWS V14.01,2013-11-18 20:07:00,
2013-11-18 15:09:00,85.5,39.9,30.00,WNW,292,2.0,7.6,20,0.00,,---,0.00,VWS V14.01,2013-11-18 20:09:00,
2013-11-18 15:10:00,85.5,39.9,30.00,NW,315,5.8,7.6,20,0.00,,---,0.00,VWS V14.01,2013-11-18 20:10:00,
2013-11-18 15:11:00,84.9,39.4,30.00,SSW,202,3.8,7.4,20,0.00,,---,0.00,VWS V14.01,2013-11-18 20:11:00,
2013-11-18 15:12:00,85.1,39.6,30.00,WNW,292,3.8,7.4,20,0.00,,---,0.00,VWS V14.01,2013-11-18 20:12:00,
2013-11-18 15:13:00,84.7,39.3,30.00,ESE,112,4.3,7.4,20,0.00,,---,0.00,VWS V14.01,2013-11-18 20:13:00,
2013-11-18 15:16:00,84.4,39.0,30.00,NW,315,5.6,7.4,20,0.00,,---,0.00,VWS V14.01,2013-11-18 20:16:00,
2013-11-18 15:17:00,84.2,38.8,30.00,WNW,292,7.4,7.4,20,0.00,,---,0.00,VWS V14.01,2013-11-18 20:17:00,
2013-11-18 15:18:00,84.2,38.8,30.00,WNW,292,7.6,7.6,20,0.00,,---,0.00,VWS V14.01,2013-11-18 20:18:00,
2013-11-18 15:19:00,83.8,38.5,30.00,WNW,292,5.8,7.6,20,0.00,,---,0.00,VWS V14.01,2013-11-18 20:19:00,
2013-11-18 15:21:00,83.8,38.5,30.03,NNW,338,4.0,8.7,20,0.00,,---,0.00,VWS V14.01,2013-11-18 20:21:00,
2013-11-18 15:22:00,83.7,38.4,30.03,NNW,338,7.2,8.7,20,0.00,,---,0.00,VWS V14.01,2013-11-18 20:22:00,
2013-11-18 15:26:00,84.2,37.5,30.03,WNW,292,4.0,9.6,19,0.00,,---,0.00,VWS V14.01,2013-11-18 20:26:00,
2013-11-18 15:30:00,84.6,39.1,30.03,WSW,248,4.3,9.6,20,0.00,,---,0.00,VWS V14.01,2013-11-18 20:30:00,
2013-11-18 15:31:00,84.6,39.1,30.03,WSW,248,2.5,6.5,20,0.00,,---,0.00,VWS V14.01,2013-11-18 20:31:00,
2013-11-18 15:32:00,84.7,39.3,30.03,WNW,292,1.1,6.5,20,0.00,,---,0.00,VWS V14.01,2013-11-18 20:32:00,
2013-11-18 15:35:00,84.7,39.3,30.03,WNW,292,4.0,6.5,20,0.00,,---,0.00,VWS V14.01,2013-11-18 20:35:00,
2013-11-18 15:36:00,84.9,39.4,30.03,WNW,292,4.0,5.8,20,0.00,,---,0.00,VWS V14.01,2013-11-18 20:36:00,
2013-11-18 15:37:00,84.7,39.3,30.00,WNW,292,4.9,6.0,20,0.00,,---,0.00,VWS V14.01,2013-11-18 20:37:00,
2013-11-18 15:38:00,84.9,39.4,30.00,SW,225,3.4,6.0,20,0.00,,---,0.00,VWS V14.01,2013-11-18 20:38:00,
2013-11-18 15:40:00,84.9,39.4,30.00,WNW,292,2.5,6.0,20,0.00,,---,0.00,VWS V14.01,2013-11-18 20:40:00,
2013-11-18 15:42:00,84.7,39.3,30.00,WSW,248,4.0,4.3,20,0.00,,---,0.00,VWS V14.01,2013-11-18 20:42:00,
2013-11-18 15:46:00,84.4,39.0,30.00,NNW,338,4.0,4.3,20,0.00,,---,0.00,VWS V14.01,2013-11-18 20:46:00,
2013-11-18 15:47:00,84.2,38.8,30.00,NNW,338,4.0,5.8,20,0.00,,---,0.00,VWS V14.01,2013-11-18 20:47:00,
2013-11-18 15:48:00,84.2,38.8,30.00,NNW,338,4.7,5.8,20,0.00,,---,0.00,VWS V14.01,2013-11-18 20:48:00,
2013-11-18 15:50:00,84.2,38.8,30.00,WNW,292,3.8,6.3,20,0.00,,---,0.00,VWS V14.01,2013-11-18 20:50:00,
2013-11-18 15:51:00,84.2,38.8,30.00,NNW,338,3.4,4.9,20,0.00,,---,0.00,VWS V14.01,2013-11-18 20:51:00,
2013-11-18 15:52:00,84.2,38.8,30.00,West,270,2.9,4.9,20,0.00,,---,0.00,VWS V14.01,2013-11-18 20:52:00,
2013-11-18 15:53:00,84.2,38.8,30.00,WNW,292,3.4,4.9,20,0.00,,---,0.00,VWS V14.01,2013-11-18 20:53:00,
2013-11-18 15:58:00,82.9,37.8,30.00,WSW,248,3.1,6.0,20,0.00,,---,0.00,VWS V14.01,2013-11-18 20:58:00,
2013-11-18 15:59:00,82.9,37.8,30.00,WSW,248,4.9,6.0,20,0.00,,---,0.00,VWS V14.01,2013-11-18 20:59:00,
2013-11-18 16:00:00,82.9,37.8,30.00,WSW,248,2.9,6.0,20,0.00,,---,0.00,VWS V14.01,2013-11-18 21:00:00,
2013-11-18 16:03:00,82.9,37.8,30.00,WSW,248,0.0,3.1,20,0.00,,---,0.00,VWS V14.01,2013-11-18 21:03:00,
2013-11-18 16:04:00,82.9,37.8,30.00,West,270,5.8,5.8,20,0.00,,---,0.00,VWS V14.01,2013-11-18 21:04:00,
2013-11-18 16:07:00,82.9,37.8,30.00,WNW,292,4.0,6.3,20,0.00,,---,0.00,VWS V14.01,2013-11-18 21:07:00,
2013-11-18 16:10:00,82.6,37.5,30.00,NNW,338,7.6,7.6,20,0.00,,---,0.00,VWS V14.01,2013-11-18 21:10:00,
2013-11-18 16:12:00,82.2,38.4,30.00,NW,315,6.0,7.6,21,0.00,,---,0.00,VWS V14.01,2013-11-18 21:12:00,
2013-11-18 16:15:00,82.0,38.3,30.00,WSW,248,3.8,7.6,21,0.00,,---,0.00,VWS V14.01,2013-11-18 21:15:00,
2013-11-18 16:16:00,81.7,38.0,30.00,NW,315,5.4,7.8,21,0.00,,---,0.00,VWS V14.01,2013-11-18 21:16:00,
2013-11-18 16:17:00,81.5,37.8,30.00,WNW,292,4.0,7.8,21,0.00,,---,0.00,VWS V14.01,2013-11-18 21:17:00,
2013-11-18 16:20:00,81.0,37.4,30.00,WSW,248,3.1,7.8,21,0.00,,---,0.00,VWS V14.01,2013-11-18 21:20:00,
2013-11-18 16:21:00,80.6,37.1,30.00,WSW,248,5.6,5.6,21,0.00,,---,0.00,VWS V14.01,2013-11-18 21:21:00,
2013-11-18 16:22:00,80.6,37.1,30.00,WNW,292,2.5,5.6,21,0.00,,---,0.00,VWS V14.01,2013-11-18 21:22:00,
2013-11-18 16:23:00,80.6,38.3,30.00,WNW,292,4.9,5.6,22,0.00,,---,0.00,VWS V14.01,2013-11-18 21:23:00,
2013-11-18 16:25:00,80.4,38.1,30.00,WNW,292,0.0,1.6,22,0.00,,---,0.00,VWS V14.01,2013-11-18 21:25:00,
2013-11-18 16:27:00,80.4,38.1,30.00,WSW,248,1.3,1.6,22,0.00,,---,0.00,VWS V14.01,2013-11-18 21:27:00,
2013-11-18 16:29:00,80.2,39.1,30.00,WNW,292,4.3,4.3,23,0.00,,---,0.00,VWS V14.01,2013-11-18 21:29:00,
2013-11-18 16:31:00,80.1,39.0,30.00,NNW,338,3.4,4.0,23,0.00,,---,0.00,VWS V14.01,2013-11-18 21:31:00,
2013-11-18 16:32:00,79.9,38.8,30.00,NNE,22,3.1,4.0,23,0.00,,---,0.00,VWS V14.01,2013-11-18 21:32:00,
2013-11-18 16:33:00,79.7,39.8,30.00,WNW,292,4.3,4.9,24,0.00,,---,0.00,VWS V14.01,2013-11-18 21:33:00,
2013-11-18 16:35:00,79.7,39.8,30.00,WNW,292,0.0,0.0,24,0.00,,---,0.00,VWS V14.01,2013-11-18 21:35:00,
2013-11-18 16:36:00,79.7,39.8,30.00,WNW,292,4.0,4.0,24,0.00,,---,0.00,VWS V14.01,2013-11-18 21:36:00,
2013-11-18 16:37:00,79.7,39.8,30.00,WNW,292,0.0,4.0,24,0.00,,---,0.00,VWS V14.01,2013-11-18 21:37:00,
2013-11-18 16:38:00,79.7,39.8,30.00,NNE,22,3.6,4.5,24,0.00,,---,0.00,VWS V14.01,2013-11-18 21:38:00,
2013-11-18 16:39:00,79.3,39.5,30.00,NNW,338,4.9,4.9,24,0.00,,---,0.00,VWS V14.01,2013-11-18 21:39:00,
2013-11-18 16:40:00,79.3,39.5,30.00,NW,315,1.3,3.6,24,0.00,,---,0.00,VWS V14.01,2013-11-18 21:40:00,
2013-11-18 16:41:00,79.3,39.5,30.00,North,0,4.5,4.5,24,0.00,,---,0.00,VWS V14.01,2013-11-18 21:41:00,
2013-11-18 16:43:00,79.2,39.3,30.00,WNW,292,3.8,5.8,24,0.00,,---,0.00,VWS V14.01,2013-11-18 21:43:00,
2013-11-18 16:44:00,79.2,39.3,30.00,NW,315,4.3,6.5,24,0.00,,---,0.00,VWS V14.01,2013-11-18 21:44:00,
2013-11-18 16:45:00,79.0,39.2,30.00,WNW,292,4.3,6.5,24,0.00,,---,0.00,VWS V14.01,2013-11-18 21:45:00,
2013-11-18 16:46:00,79.0,39.2,30.00,WNW,292,3.6,5.4,24,0.00,,---,0.00,VWS V14.01,2013-11-18 21:46:00,
2013-11-18 16:50:00,78.8,39.0,30.00,ESE,112,0.0,0.0,24,0.00,,---,0.00,VWS V14.01,2013-11-18 21:50:00,
2013-11-18 16:52:00,78.8,39.0,30.00,NNE,22,0.0,0.0,24,0.00,,---,0.00,VWS V14.01,2013-11-18 21:52:00,
2013-11-18 16:53:00,78.8,39.0,30.00,NNW,338,3.6,3.6,24,0.00,,---,0.00,VWS V14.01,2013-11-18 21:53:00,
2013-11-18 16:55:00,78.6,39.9,30.00,West,270,0.0,0.0,25,0.00,,---,0.00,VWS V14.01,2013-11-18 21:55:00,
2013-11-18 16:58:00,78.4,39.7,30.00,WNW,292,0.0,0.0,25,0.00,,---,0.00,VWS V14.01,2013-11-18 21:58:00,
2013-11-18 17:00:00,78.4,39.7,30.00,WNW,292,0.0,0.9,25,0.00,,---,0.00,VWS V14.01,2013-11-18 22:00:00,
2013-11-18 17:01:00,78.3,40.6,30.00,WNW,292,2.5,2.5,26,0.00,,---,0.00,VWS V14.01,2013-11-18 22:01:00,
2013-11-18 17:02:00,78.3,40.6,30.00,WNW,292,1.6,3.6,26,0.00,,---,0.00,VWS V14.01,2013-11-18 22:02:00,
2013-11-18 17:03:00,78.1,40.4,30.00,WNW,292,3.1,3.6,26,0.00,,---,0.00,VWS V14.01,2013-11-18 22:03:00,
2013-11-18 17:05:00,78.1,40.4,30.00,NNW,338,0.0,3.6,26,0.00,,---,0.00,VWS V14.01,2013-11-18 22:05:00,
2013-11-18 17:07:00,77.9,40.3,30.00,North,0,0.0,1.6,26,0.00,,---,0.00,VWS V14.01,2013-11-18 22:07:00,
2013-11-18 17:09:00,77.7,40.1,30.00,NW,315,0.0,1.6,26,0.00,,---,0.00,VWS V14.01,2013-11-18 22:09:00,
2013-11-18 17:10:00,77.7,40.1,30.00,NW,315,0.0,1.6,26,0.00,,---,0.00,VWS V14.01,2013-11-18 22:10:00,
2013-11-18 17:11:00,77.7,40.1,30.00,NW,315,0.0,0.0,26,0.00,,---,0.00,VWS V14.01,2013-11-18 22:11:00,
2013-11-18 17:12:00,77.7,40.1,30.00,West,270,0.0,0.0,26,0.00,,---,0.00,VWS V14.01,2013-11-18 22:12:00,
2013-11-18 17:13:00,77.5,40.0,30.00,WNW,292,1.6,2.2,26,0.00,,---,0.00,VWS V14.01,2013-11-18 22:13:00,
2013-11-18 17:15:00,77.5,41.0,30.00,WNW,292,0.0,3.1,27,0.00,,---,0.00,VWS V14.01,2013-11-18 22:15:00,
2013-11-18 17:18:00,77.4,40.8,30.00,WSW,248,0.0,2.2,27,0.00,,---,0.00,VWS V14.01,2013-11-18 22:18:00,
2013-11-18 17:20:00,77.4,41.7,30.00,WNW,292,0.0,2.2,28,0.00,,---,0.00,VWS V14.01,2013-11-18 22:20:00,
2013-11-18 17:21:00,77.2,42.5,30.00,WNW,292,4.0,4.7,29,0.00,,---,0.00,VWS V14.01,2013-11-18 22:21:00,
2013-11-18 17:23:00,77.0,43.2,30.00,WSW,248,2.5,4.9,30,0.00,,---,0.00,VWS V14.01,2013-11-18 22:23:00,
2013-11-18 17:26:00,76.8,43.9,30.00,WSW,248,1.1,1.3,31,0.00,,---,0.00,VWS V14.01,2013-11-18 22:26:00,
2013-11-18 17:27:00,76.8,43.9,30.00,WNW,292,2.9,3.6,31,0.00,,---,0.00,VWS V14.01,2013-11-18 22:27:00,
2013-11-18 17:28:00,76.8,43.9,30.00,WSW,248,0.0,3.6,31,0.00,,---,0.00,VWS V14.01,2013-11-18 22:28:00,
2013-11-18 17:32:00,76.5,45.2,30.00,NNW,338,2.5,4.0,33,0.00,,---,0.00,VWS V14.01,2013-11-18 22:32:00,
2013-11-18 17:33:00,76.5,45.2,30.00,WNW,292,3.6,5.6,33,0.00,,---,0.00,VWS V14.01,2013-11-18 22:33:00,
2013-11-18 17:34:00,76.5,45.2,30.00,WNW,292,2.5,5.6,33,0.00,,---,0.00,VWS V14.01,2013-11-18 22:34:00,
2013-11-18 17:35:00,76.3,45.9,30.00,WSW,248,2.0,5.6,34,0.00,,---,0.00,VWS V14.01,2013-11-18 22:35:00,
2013-11-18 17:38:00,76.1,45.7,30.00,West,270,2.5,3.8,34,0.00,,---,0.00,VWS V14.01,2013-11-18 22:38:00,
2013-11-18 17:39:00,76.1,46.5,30.00,WNW,292,3.1,3.8,35,0.00,,---,0.00,VWS V14.01,2013-11-18 22:39:00,
2013-11-18 17:40:00,76.1,46.5,30.00,NW,315,2.5,4.3,35,0.00,,---,0.00,VWS V14.01,2013-11-18 22:40:00,
2013-11-18 17:42:00,75.9,46.3,30.00,WNW,292,4.3,4.3,35,0.00,,---,0.00,VWS V14.01,2013-11-18 22:42:00,
2013-11-18 17:43:00,75.9,47.1,30.00,NW,315,3.6,4.3,36,0.00,,---,0.00,VWS V14.01,2013-11-18 22:43:00,
2013-11-18 17:44:00,75.9,47.1,30.00,WNW,292,0.0,4.3,36,0.00,,---,0.00,VWS V14.01,2013-11-18 22:44:00,
2013-11-18 17:45:00,75.7,46.9,30.00,WNW,292,0.0,4.3,36,0.00,,---,0.00,VWS V14.01,2013-11-18 22:45:00,
2013-11-18 17:49:00,75.7,46.9,30.00,WNW,292,1.3,3.6,36,0.00,,---,0.00,VWS V14.01,2013-11-18 22:49:00,
2013-11-18 17:50:00,75.6,47.5,30.00,NNW,338,2.2,3.6,37,0.00,,---,0.00,VWS V14.01,2013-11-18 22:50:00,
2013-11-18 17:51:00,75.6,47.5,30.00,WSW,248,4.3,4.3,37,0.00,,---,0.00,VWS V14.01,2013-11-18 22:51:00,
2013-11-18 17:54:00,75.4,48.0,30.00,WNW,292,1.6,4.3,38,0.00,,---,0.00,VWS V14.01,2013-11-18 22:54:00,
2013-11-18 17:55:00,75.4,48.0,30.00,NW,315,0.0,4.3,38,0.00,,---,0.00,VWS V14.01,2013-11-18 22:55:00,
2013-11-18 17:56:00,75.4,48.0,30.00,WSW,248,0.0,0.0,38,0.00,,---,0.00,VWS V14.01,2013-11-18 22:56:00,
2013-11-18 18:01:00,75.4,49.4,30.00,WNW,292,0.0,3.6,40,0.00,,---,0.00,VWS V14.01,2013-11-18 23:01:00,
2013-11-18 18:03:00,75.2,49.2,30.00,WNW,292,0.0,3.6,40,0.00,,---,0.00,VWS V14.01,2013-11-18 23:03:00,
2013-11-18 18:05:00,75.2,49.2,30.00,WNW,292,0.9,1.3,40,0.00,,---,0.00,VWS V14.01,2013-11-18 23:05:00,
2013-11-18 18:06:00,75.2,49.2,30.00,WNW,292,3.6,3.6,40,0.00,,---,0.00,VWS V14.01,2013-11-18 23:06:00,
2013-11-18 18:07:00,75.2,49.2,30.00,WNW,292,3.8,3.8,40,0.00,,---,0.00,VWS V14.01,2013-11-18 23:07:00,
2013-11-18 18:08:00,75.2,49.9,30.00,West,270,3.4,3.8,41,0.00,,---,0.00,VWS V14.01,2013-11-18 23:08:00,
2013-11-18 18:11:00,75.0,49.8,30.00,West,270,0.0,3.4,41,0.00,,---,0.00,VWS V14.01,2013-11-18 23:11:00,
2013-11-18 18:13:00,75.0,50.4,30.00,NW,315,2.7,3.4,42,0.00,,---,0.00,VWS V14.01,2013-11-18 23:13:00,
2013-11-18 18:15:00,75.0,49.8,30.00,NW,315,1.1,1.1,41,0.00,,---,0.00,VWS V14.01,2013-11-18 23:15:00,
2013-11-18 18:16:00,75.0,49.8,30.00,NNW,338,0.0,2.2,41,0.00,,---,0.00,VWS V14.01,2013-11-18 23:16:00,
2013-11-18 18:18:00,75.0,49.8,30.00,NNW,338,3.4,3.6,41,0.00,,---,0.00,VWS V14.01,2013-11-18 23:18:00,
2013-11-18 18:19:00,75.0,50.4,30.00,NNW,338,2.5,3.6,42,0.00,,---,0.00,VWS V14.01,2013-11-18 23:19:00,
2013-11-18 18:20:00,75.0,50.4,30.00,WNW,292,0.0,3.6,42,0.00,,---,0.00,VWS V14.01,2013-11-18 23:20:00,
2013-11-18 18:21:00,74.8,50.2,30.03,WNW,292,0.0,0.0,42,0.00,,---,0.00,VWS V14.01,2013-11-18 23:21:00,
2013-11-18 18:23:00,75.0,50.4,30.03,NW,315,0.0,2.7,42,0.00,,---,0.00,VWS V14.01,2013-11-18 23:23:00,
2013-11-18 18:25:00,74.8,50.2,30.03,WNW,292,0.0,2.7,42,0.00,,---,0.00,VWS V14.01,2013-11-18 23:25:00,
2013-11-18 18:26:00,74.8,50.2,30.03,NNE,22,0.0,2.5,42,0.00,,---,0.00,VWS V14.01,2013-11-18 23:26:00,
2013-11-18 18:28:00,75.0,50.4,30.03,NNW,338,1.3,2.7,42,0.00,,---,0.00,VWS V14.01,2013-11-18 23:28:00,
2013-11-18 18:30:00,75.0,50.4,30.03,West,270,0.9,2.9,42,0.00,,---,0.00,VWS V14.01,2013-11-18 23:30:00,
2013-11-18 18:31:00,75.0,50.4,30.03,West,270,1.1,1.1,42,0.00,,---,0.00,VWS V14.01,2013-11-18 23:31:00,
2013-11-18 18:32:00,75.0,50.4,30.03,WSW,248,0.0,2.0,42,0.00,,---,0.00,VWS V14.01,2013-11-18 23:32:00,
2013-11-18 18:36:00,75.0,50.4,30.03,WNW,292,4.0,4.0,42,0.00,,---,0.00,VWS V14.01,2013-11-18 23:36:00,
2013-11-18 18:37:00,75.0,50.4,30.03,WNW,292,2.9,4.7,42,0.00,,---,0.00,VWS V14.01,2013-11-18 23:37:00,
2013-11-18 18:38:00,75.0,51.0,30.03,WNW,292,4.7,4.7,43,0.00,,---,0.00,VWS V14.01,2013-11-18 23:38:00,
2013-11-18 18:39:00,75.0,51.0,30.03,West,270,1.6,4.7,43,0.00,,---,0.00,VWS V14.01,2013-11-18 23:39:00,
2013-11-18 18:40:00,75.0,51.0,30.03,WNW,292,3.1,4.7,43,0.00,,---,0.00,VWS V14.01,2013-11-18 23:40:00,
2013-11-18 18:43:00,74.8,50.9,30.03,NW,315,2.9,3.1,43,0.00,,---,0.00,VWS V14.01,2013-11-18 23:43:00,
2013-11-18 18:45:00,74.8,50.9,30.03,WNW,292,2.5,3.1,43,0.00,,---,0.00,VWS V14.01,2013-11-18 23:45:00,
2013-11-18 18:48:00,74.8,50.9,30.03,NNE,22,0.0,2.5,43,0.00,,---,0.00,VWS V14.01,2013-11-18 23:48:00,
2013-11-18 18:50:00,74.8,50.9,30.03,WNW,292,0.0,2.5,43,0.00,,---,0.00,VWS V14.01,2013-11-18 23:50:00,
2013-11-18 18:51:00,74.8,50.2,30.03,WNW,292,0.0,0.0,42,0.00,,---,0.00,VWS V14.01,2013-11-18 23:51:00,
2013-11-18 18:52:00,74.7,50.1,30.03,NNW,338,0.0,0.0,42,0.00,,---,0.00,VWS V14.01,2013-11-18 23:52:00,
2013-11-18 18:56:00,74.7,50.7,30.03,NNW,338,0.0,0.0,43,0.00,,---,0.00,VWS V14.01,2013-11-18 23:56:00,
2013-11-18 18:57:00,74.7,50.7,30.03,NNW,338,0.0,0.0,43,0.00,,---,0.00,VWS V14.01,2013-11-18 23:57:00,
2013-11-18 19:00:00,74.7,50.7,30.03,WNW,292,1.6,1.6,43,0.00,,---,0.00,VWS V14.01,2013-11-19 00:00:00,
2013-11-18 19:01:00,74.7,50.7,30.03,WNW,292,0.0,1.6,43,0.00,,---,0.00,VWS V14.01,2013-11-19 00:01:00,
2013-11-18 19:03:00,74.7,50.7,30.03,West,270,0.0,1.6,43,0.00,,---,0.00,VWS V14.01,2013-11-19 00:03:00,
2013-11-18 19:04:00,74.7,50.7,30.03,West,270,0.0,1.6,43,0.00,,---,0.00,VWS V14.01,2013-11-19 00:04:00,
2013-11-18 19:05:00,74.7,50.7,30.03,West,270,0.0,1.6,43,0.00,,---,0.00,VWS V14.01,2013-11-19 00:05:00,
2013-11-18 19:08:00,74.5,50.5,30.00,SSW,202,0.0,0.0,43,0.00,,---,0.00,VWS V14.01,2013-11-19 00:08:00,
2013-11-18 19:09:00,74.5,50.5,30.00,SSW,202,0.0,0.0,43,0.00,,---,0.00,VWS V14.01,2013-11-19 00:09:00,
2013-11-18 19:10:00,74.5,50.5,30.00,SSW,202,0.0,0.0,43,0.00,,---,0.00,VWS V14.01,2013-11-19 00:10:00,
2013-11-18 19:13:00,74.5,50.5,30.00,SW,225,0.0,0.0,43,0.00,,---,0.00,VWS V14.01,2013-11-19 00:13:00,
2013-11-18 19:14:00,74.3,50.4,30.00,WSW,248,0.0,0.0,43,0.00,,---,0.00,VWS V14.01,2013-11-19 00:14:00,
2013-11-18 19:15:00,74.3,50.4,30.00,WSW,248,0.0,0.0,43,0.00,,---,0.00,VWS V14.01,2013-11-19 00:15:00,
2013-11-18 19:19:00,74.3,50.4,30.00,West,270,0.0,2.5,43,0.00,,---,0.00,VWS V14.01,2013-11-19 00:19:00,
2013-11-18 19:21:00,74.5,50.5,30.00,WNW,292,0.0,1.6,43,0.00,,---,0.00,VWS V14.01,2013-11-19 00:21:00,
2013-11-18 19:22:00,74.5,50.5,30.03,WNW,292,0.0,1.6,43,0.00,,---,0.00,VWS V14.01,2013-11-19 00:22:00,
2013-11-18 19:24:00,74.5,50.5,30.03,WNW,292,0.0,1.6,43,0.00,,---,0.00,VWS V14.01,2013-11-19 00:24:00,
2013-11-18 19:25:00,74.5,50.5,30.03,WNW,292,0.0,1.6,43,0.00,,---,0.00,VWS V14.01,2013-11-19 00:25:00,
2013-11-18 19:27:00,74.5,51.2,30.03,WNW,292,0.0,2.7,44,0.00,,---,0.00,VWS V14.01,2013-11-19 00:27:00,
2013-11-18 19:30:00,74.5,51.2,30.03,West,270,0.0,2.7,44,0.00,,---,0.00,VWS V14.01,2013-11-19 00:30:00,
2013-11-18 19:31:00,74.5,51.2,30.03,WSW,248,0.0,0.0,44,0.00,,---,0.00,VWS V14.01,2013-11-19 00:31:00,
2013-11-18 19:32:00,74.5,51.2,30.03,WSW,248,0.0,0.0,44,0.00,,---,0.00,VWS V14.01,2013-11-19 00:32:00,
2013-11-18 19:33:00,74.5,51.2,30.03,WSW,248,0.0,0.0,44,0.00,,---,0.00,VWS V14.01,2013-11-19 00:33:00,
2013-11-18 19:35:00,74.5,51.2,30.03,WSW,248,0.0,0.0,44,0.00,,---,0.00,VWS V14.01,2013-11-19 00:35:00,
2013-11-18 19:36:00,74.5,51.2,30.03,WSW,248,0.0,0.0,44,0.00,,---,0.00,VWS V14.01,2013-11-19 00:36:00,
2013-11-18 19:37:00,74.5,51.2,30.00,WSW,248,0.0,0.0,44,0.00,,---,0.00,VWS V14.01,2013-11-19 00:37:00,
2013-11-18 19:38:00,74.5,51.2,30.00,WSW,248,0.0,0.0,44,0.00,,---,0.00,VWS V14.01,2013-11-19 00:38:00,
2013-11-18 19:40:00,74.3,51.0,30.00,WSW,248,0.0,0.0,44,0.00,,---,0.00,VWS V14.01,2013-11-19 00:40:00,
2013-11-18 19:42:00,74.3,51.0,30.00,West,270,0.0,0.0,44,0.00,,---,0.00,VWS V14.01,2013-11-19 00:42:00,
2013-11-18 19:45:00,74.3,51.0,30.00,West,270,0.0,0.0,44,0.00,,---,0.00,VWS V14.01,2013-11-19 00:45:00,
2013-11-18 19:47:00,74.3,51.6,30.00,West,270,0.0,0.0,45,0.00,,---,0.00,VWS V14.01,2013-11-19 00:47:00,
2013-11-18 19:50:00,74.1,51.4,30.00,West,270,0.0,0.0,45,0.00,,---,0.00,VWS V14.01,2013-11-19 00:50:00,
2013-11-18 19:51:00,74.1,51.4,30.00,West,270,0.0,0.0,45,0.00,,---,0.00,VWS V14.01,2013-11-19 00:51:00,
2013-11-18 19:54:00,74.1,51.4,30.03,WNW,292,0.0,0.0,45,0.00,,---,0.00,VWS V14.01,2013-11-19 00:54:00,
2013-11-18 19:55:00,74.1,51.4,30.03,WNW,292,0.0,0.0,45,0.00,,---,0.00,VWS V14.01,2013-11-19 00:55:00,
2013-11-18 19:56:00,74.1,51.4,30.03,WNW,292,0.0,0.0,45,0.00,,---,0.00,VWS V14.01,2013-11-19 00:56:00,
2013-11-18 19:57:00,74.1,51.4,30.03,WNW,292,0.0,0.0,45,0.00,,---,0.00,VWS V14.01,2013-11-19 00:57:00,
2013-11-18 19:58:00,74.1,51.4,30.03,WNW,292,0.0,0.0,45,0.00,,---,0.00,VWS V14.01,2013-11-19 00:58:00,
2013-11-18 19:59:00,74.1,51.4,30.03,WNW,292,0.0,0.0,45,0.00,,---,0.00,VWS V14.01,2013-11-19 00:59:00,
2013-11-18 20:01:00,74.1,51.4,30.03,WNW,292,0.0,0.0,45,0.00,,---,0.00,VWS V14.01,2013-11-19 01:01:00,
2013-11-18 20:02:00,74.1,52.0,30.03,WNW,292,0.0,0.0,46,0.00,,---,0.00,VWS V14.01,2013-11-19 01:02:00,
2013-11-18 20:03:00,73.9,51.9,30.03,WNW,292,0.0,0.0,46,0.00,,---,0.00,VWS V14.01,2013-11-19 01:03:00,
2013-11-18 20:04:00,73.9,51.9,30.03,WNW,292,0.0,0.0,46,0.00,,---,0.00,VWS V14.01,2013-11-19 01:04:00,
2013-11-18 20:06:00,73.9,51.9,30.03,WNW,292,0.0,0.0,46,0.00,,---,0.00,VWS V14.01,2013-11-19 01:06:00,
2013-11-18 20:09:00,73.9,51.9,30.03,West,270,0.0,0.0,46,0.00,,---,0.00,VWS V14.01,2013-11-19 01:09:00,
2013-11-18 20:10:00,73.9,51.9,30.03,West,270,0.0,0.0,46,0.00,,---,0.00,VWS V14.01,2013-11-19 01:10:00,
2013-11-18 20:14:00,73.9,51.9,30.03,West,270,0.0,0.0,46,0.00,,---,0.00,VWS V14.01,2013-11-19 01:14:00,
2013-11-18 20:15:00,73.9,51.9,30.03,West,270,0.0,0.0,46,0.00,,---,0.00,VWS V14.01,2013-11-19 01:15:00,
2013-11-18 20:17:00,73.8,52.3,30.03,West,270,0.0,0.0,47,0.00,,---,0.00,VWS V14.01,2013-11-19 01:17:00,
2013-11-18 20:19:00,73.8,52.3,30.03,West,270,0.0,0.0,47,0.00,,---,0.00,VWS V14.01,2013-11-19 01:19:00,
2013-11-18 20:20:00,73.6,52.1,30.03,West,270,0.0,0.0,47,0.00,,---,0.00,VWS V14.01,2013-11-19 01:20:00,
2013-11-18 20:25:00,73.4,52.0,30.03,West,270,0.0,0.0,47,0.00,,---,0.00,VWS V14.01,2013-11-19 01:25:00,
2013-11-18 20:26:00,73.4,52.0,30.03,West,270,0.0,0.0,47,0.00,,---,0.00,VWS V14.01,2013-11-19 01:26:00,
2013-11-18 20:27:00,73.4,52.0,30.03,West,270,0.0,0.0,47,0.00,,---,0.00,VWS V14.01,2013-11-19 01:27:00,
2013-11-18 20:29:00,73.4,52.0,30.03,West,270,0.0,0.0,47,0.00,,---,0.00,VWS V14.01,2013-11-19 01:29:00,
2013-11-18 20:30:00,73.4,52.0,30.03,West,270,0.0,0.0,47,0.00,,---,0.00,VWS V14.01,2013-11-19 01:30:00,
2013-11-18 20:31:00,73.4,52.5,30.03,West,270,0.0,0.0,48,0.00,,---,0.00,VWS V14.01,2013-11-19 01:31:00,
2013-11-18 20:32:00,73.4,52.5,30.03,West,270,0.0,0.0,48,0.00,,---,0.00,VWS V14.01,2013-11-19 01:32:00,
2013-11-18 20:34:00,73.4,52.5,30.03,WSW,248,0.0,0.0,48,0.00,,---,0.00,VWS V14.01,2013-11-19 01:34:00,
2013-11-18 20:36:00,73.4,52.5,30.00,SSW,202,0.0,0.0,48,0.00,,---,0.00,VWS V14.01,2013-11-19 01:36:00,
2013-11-18 20:37:00,73.4,52.5,30.00,SSW,202,0.0,0.0,48,0.00,,---,0.00,VWS V14.01,2013-11-19 01:37:00,
2013-11-18 20:40:00,73.2,52.9,30.00,SSW,202,0.0,0.0,49,0.00,,---,0.00,VWS V14.01,2013-11-19 01:40:00,
2013-11-18 20:44:00,73.0,52.8,30.00,West,270,0.0,0.0,49,0.00,,---,0.00,VWS V14.01,2013-11-19 01:44:00,
2013-11-18 20:45:00,73.0,52.8,30.00,West,270,0.0,0.0,49,0.00,,---,0.00,VWS V14.01,2013-11-19 01:45:00,
2013-11-18 20:50:00,73.0,53.3,30.00,WNW,292,0.0,0.0,50,0.00,,---,0.00,VWS V14.01,2013-11-19 01:50:00,
2013-11-18 20:51:00,73.0,53.3,30.00,WNW,292,0.0,0.0,50,0.00,,---,0.00,VWS V14.01,2013-11-19 01:51:00,
2013-11-18 20:55:00,72.9,53.7,30.00,WNW,292,0.0,0.0,51,0.00,,---,0.00,VWS V14.01,2013-11-19 01:55:00,
2013-11-18 20:56:00,72.9,53.7,30.00,WNW,292,0.0,0.0,51,0.00,,---,0.00,VWS V14.01,2013-11-19 01:56:00,
2013-11-18 20:57:00,72.9,53.7,30.00,WNW,292,0.0,0.0,51,0.00,,---,0.00,VWS V14.01,2013-11-19 01:57:00,
2013-11-18 20:58:00,72.9,53.7,30.00,WNW,292,0.0,0.0,51,0.00,,---,0.00,VWS V14.01,2013-11-19 01:58:00,
2013-11-18 21:03:00,72.7,54.1,30.00,WNW,292,0.0,0.0,52,0.00,,---,0.00,VWS V14.01,2013-11-19 02:03:00,
2013-11-18 21:04:00,72.7,54.1,30.00,WNW,292,0.0,0.0,52,0.00,,---,0.00,VWS V14.01,2013-11-19 02:04:00,
2013-11-18 21:05:00,72.7,54.1,30.00,WNW,292,0.0,0.0,52,0.00,,---,0.00,VWS V14.01,2013-11-19 02:05:00,
2013-11-18 21:09:00,72.7,54.6,30.00,WNW,292,0.0,0.0,53,0.00,,---,0.00,VWS V14.01,2013-11-19 02:09:00,
2013-11-18 21:11:00,72.7,54.6,30.00,WSW,248,0.0,0.0,53,0.00,,---,0.00,VWS V14.01,2013-11-19 02:11:00,
2013-11-18 21:15:00,72.9,55.3,30.00,WNW,292,0.0,0.0,54,0.00,,---,0.00,VWS V14.01,2013-11-19 02:15:00,
2013-11-18 21:16:00,72.9,55.8,30.00,WNW,292,0.0,0.0,55,0.00,,---,0.00,VWS V14.01,2013-11-19 02:16:00,
2013-11-18 21:20:00,73.0,57.9,30.00,SW,225,0.0,0.0,59,0.00,,---,0.00,VWS V14.01,2013-11-19 02:20:00,
2013-11-18 21:21:00,73.0,57.9,30.03,SW,225,0.0,0.9,59,0.00,,---,0.00,VWS V14.01,2013-11-19 02:21:00,
2013-11-18 21:24:00,73.0,58.3,30.03,WSW,248,0.0,1.6,60,0.00,,---,0.00,VWS V14.01,2013-11-19 02:24:00,
2013-11-18 21:25:00,73.0,58.3,30.03,West,270,0.0,0.0,60,0.00,,---,0.00,VWS V14.01,2013-11-19 02:25:00,
2013-11-18 21:26:00,73.0,58.3,30.03,WSW,248,0.0,0.0,60,0.00,,---,0.00,VWS V14.01,2013-11-19 02:26:00,
2013-11-18 21:28:00,73.2,59.0,30.03,WSW,248,0.0,2.5,61,0.00,,---,0.00,VWS V14.01,2013-11-19 02:28:00,
2013-11-18 21:30:00,73.2,59.4,30.03,WSW,248,0.0,0.0,62,0.00,,---,0.00,VWS V14.01,2013-11-19 02:30:00,
2013-11-18 21:31:00,73.2,59.4,30.03,SSW,202,0.0,0.0,62,0.00,,---,0.00,VWS V14.01,2013-11-19 02:31:00,
2013-11-18 21:33:00,73.2,59.9,30.03,WSW,248,0.0,0.0,63,0.00,,---,0.00,VWS V14.01,2013-11-19 02:33:00,
2013-11-18 21:35:00,73.2,59.9,30.03,WSW,248,0.0,0.0,63,0.00,,---,0.00,VWS V14.01,2013-11-19 02:35:00,
2013-11-18 21:37:00,73.2,60.3,30.03,WSW,248,0.0,0.0,64,0.00,,---,0.00,VWS V14.01,2013-11-19 02:37:00,
2013-11-18 21:38:00,73.2,60.3,30.03,WSW,248,0.0,0.0,64,0.00,,---,0.00,VWS V14.01,2013-11-19 02:38:00,
2013-11-18 21:42:00,73.2,60.3,30.03,West,270,0.0,1.1,64,0.00,,---,0.00,VWS V14.01,2013-11-19 02:42:00,
2013-11-18 21:43:00,73.2,60.8,30.03,WSW,248,0.0,1.1,65,0.00,,---,0.00,VWS V14.01,2013-11-19 02:43:00,
2013-11-18 21:44:00,73.4,60.9,30.03,SW,225,0.0,3.4,65,0.00,,---,0.00,VWS V14.01,2013-11-19 02:44:00,
2013-11-18 21:45:00,73.4,61.4,30.03,WSW,248,0.0,3.4,66,0.00,,---,0.00,VWS V14.01,2013-11-19 02:45:00,
2013-11-18 21:49:00,73.4,62.2,30.03,WNW,292,1.1,2.2,68,0.00,,---,0.00,VWS V14.01,2013-11-19 02:49:00,
2013-11-18 21:50:00,73.4,62.2,30.03,WNW,292,0.0,2.2,68,0.00,,---,0.00,VWS V14.01,2013-11-19 02:50:00,
2013-11-18 21:51:00,73.4,62.6,30.03,NW,315,1.6,1.6,69,0.00,,---,0.00,VWS V14.01,2013-11-19 02:51:00,
2013-11-18 21:54:00,73.4,63.4,30.03,WSW,248,0.0,2.9,71,0.00,,---,0.00,VWS V14.01,2013-11-19 02:54:00,
2013-11-18 21:55:00,73.4,63.4,30.03,WSW,248,0.0,2.9,71,0.00,,---,0.00,VWS V14.01,2013-11-19 02:55:00,
2013-11-18 21:56:00,73.4,63.4,30.03,West,270,0.0,0.0,71,0.00,,---,0.00,VWS V14.01,2013-11-19 02:56:00,
2013-11-18 22:00:00,73.6,65.2,30.03,West,270,1.1,2.9,75,0.00,,---,0.00,VWS V14.01,2013-11-19 03:00:00,
2013-11-18 22:03:00,73.6,65.9,30.03,WSW,248,1.3,2.7,77,0.00,,---,0.00,VWS V14.01,2013-11-19 03:03:00,
2013-11-18 22:05:00,73.6,66.3,30.03,WNW,292,2.7,2.7,78,0.00,,---,0.00,VWS V14.01,2013-11-19 03:05:00,
2013-11-18 22:10:00,73.6,66.7,30.03,WSW,248,0.0,2.7,79,0.00,,---,0.00,VWS V14.01,2013-11-19 03:10:00,
2013-11-18 22:11:00,73.4,66.5,30.03,WSW,248,0.0,0.0,79,0.00,,---,0.00,VWS V14.01,2013-11-19 03:11:00,
2013-11-18 22:12:00,73.4,66.5,30.03,West,270,0.0,0.0,79,0.00,,---,0.00,VWS V14.01,2013-11-19 03:12:00,
2013-11-18 22:14:00,73.4,66.9,30.03,WNW,292,0.0,1.3,80,0.00,,---,0.00,VWS V14.01,2013-11-19 03:14:00,
2013-11-18 22:15:00,73.6,67.0,30.03,WSW,248,0.0,1.3,80,0.00,,---,0.00,VWS V14.01,2013-11-19 03:15:00,
2013-11-18 22:16:00,73.6,67.0,30.03,WSW,248,0.0,1.3,80,0.00,,---,0.00,VWS V14.01,2013-11-19 03:16:00,
2013-11-18 22:17:00,73.6,67.0,30.03,WSW,248,0.0,1.3,80,0.00,,---,0.00,VWS V14.01,2013-11-19 03:17:00,
2013-11-18 22:19:00,73.6,67.0,30.03,WSW,248,0.0,1.6,80,0.00,,---,0.00,VWS V14.01,2013-11-19 03:19:00,
2013-11-18 22:20:00,73.6,67.4,30.03,WSW,248,0.0,0.0,81,0.00,,---,0.00,VWS V14.01,2013-11-19 03:20:00,
2013-11-18 22:21:00,73.6,67.4,30.03,WSW,248,0.0,0.0,81,0.00,,---,0.00,VWS V14.01,2013-11-19 03:21:00,
2013-11-18 22:25:00,73.6,67.8,30.00,West,270,0.0,0.0,82,0.00,,---,0.00,VWS V14.01,2013-11-19 03:25:00,
2013-11-18 22:26:00,73.6,67.8,30.00,WSW,248,0.0,0.0,82,0.00,,---,0.00,VWS V14.01,2013-11-19 03:26:00,
2013-11-18 22:27:00,73.6,68.1,30.00,WNW,292,2.5,2.5,83,0.00,,---,0.00,VWS V14.01,2013-11-19 03:27:00,
2013-11-18 22:30:00,73.6,68.4,30.00,WSW,248,1.1,2.5,84,0.00,,---,0.00,VWS V14.01,2013-11-19 03:30:00,
2013-11-18 22:31:00,73.6,68.4,30.00,West,270,1.1,1.6,84,0.00,,---,0.00,VWS V14.01,2013-11-19 03:31:00,
2013-11-18 22:32:00,73.8,68.6,30.00,West,270,2.0,2.0,84,0.00,,---,0.00,VWS V14.01,2013-11-19 03:32:00,
2013-11-18 22:33:00,73.8,69.0,30.00,WSW,248,1.6,2.7,85,0.00,,---,0.00,VWS V14.01,2013-11-19 03:33:00,
2013-11-18 22:35:00,73.8,69.0,30.00,WNW,292,2.5,2.5,85,0.00,,---,0.00,VWS V14.01,2013-11-19 03:35:00,
2013-11-18 22:36:00,73.8,69.3,30.00,West,270,2.9,2.9,86,0.00,,---,0.00,VWS V14.01,2013-11-19 03:36:00,
2013-11-18 22:37:00,73.8,69.3,30.00,WSW,248,0.0,2.9,86,0.00,,---,0.00,VWS V14.01,2013-11-19 03:37:00,
2013-11-18 22:40:00,73.8,69.3,30.00,WSW,248,0.0,2.9,86,0.00,,---,0.00,VWS V14.01,2013-11-19 03:40:00,
2013-11-18 22:41:00,73.8,69.3,30.00,WSW,248,0.0,0.0,86,0.00,,---,0.00,VWS V14.01,2013-11-19 03:41:00,
2013-11-18 22:42:00,73.8,69.3,30.00,WSW,248,0.0,0.0,86,0.00,,---,0.00,VWS V14.01,2013-11-19 03:42:00,
2013-11-18 22:44:00,73.6,69.5,30.00,WNW,292,0.0,0.0,87,0.00,,---,0.00,VWS V14.01,2013-11-19 03:44:00,
2013-11-18 22:45:00,73.8,69.7,30.00,WNW,292,1.6,2.0,87,0.00,,---,0.00,VWS V14.01,2013-11-19 03:45:00,
2013-11-18 22:48:00,73.8,70.0,30.00,WSW,248,0.0,2.2,88,0.00,,---,0.00,VWS V14.01,2013-11-19 03:48:00,
2013-11-18 22:50:00,73.8,70.0,30.00,WNW,292,0.0,1.3,88,0.00,,---,0.00,VWS V14.01,2013-11-19 03:50:00,
2013-11-18 22:51:00,73.8,70.0,30.03,West,270,2.2,2.2,88,0.00,,---,0.00,VWS V14.01,2013-11-19 03:51:00,
2013-11-18 22:52:00,73.8,70.0,30.03,WNW,292,0.0,2.2,88,0.00,,---,0.00,VWS V14.01,2013-11-19 03:52:00,
2013-11-18 22:53:00,73.8,70.0,30.03,WSW,248,0.0,2.2,88,0.00,,---,0.00,VWS V14.01,2013-11-19 03:53:00,
2013-11-18 22:54:00,73.8,70.3,30.03,WNW,292,0.0,3.4,89,0.00,,---,0.00,VWS V14.01,2013-11-19 03:54:00,
2013-11-18 22:56:00,73.8,70.3,30.03,WNW,292,0.0,0.9,89,0.00,,---,0.00,VWS V14.01,2013-11-19 03:56:00,
2013-11-18 22:58:00,73.8,70.3,30.03,West,270,0.0,3.4,89,0.00,,---,0.00,VWS V14.01,2013-11-19 03:58:00,
2013-11-18 23:00:00,73.8,70.3,30.03,WSW,248,0.0,3.4,89,0.00,,---,0.00,VWS V14.01,2013-11-19 04:00:00,
2013-11-18 23:01:00,73.8,70.3,30.03,WSW,248,1.1,3.6,89,0.00,,---,0.00,VWS V14.01,2013-11-19 04:01:00,
2013-11-18 23:03:00,73.8,70.7,30.03,West,270,3.4,3.6,90,0.00,,---,0.00,VWS V14.01,2013-11-19 04:03:00,
2013-11-18 23:04:00,73.8,70.7,30.03,WSW,248,2.2,3.6,90,0.00,,---,0.00,VWS V14.01,2013-11-19 04:04:00,
2013-11-18 23:05:00,73.8,70.7,30.03,WSW,248,2.7,2.7,90,0.00,,---,0.00,VWS V14.01,2013-11-19 04:05:00,
2013-11-18 23:08:00,73.8,70.7,30.00,WNW,292,1.6,2.7,90,0.00,,---,0.00,VWS V14.01,2013-11-19 04:08:00,
2013-11-18 23:10:00,73.8,70.7,30.00,WNW,292,0.0,2.7,90,0.00,,---,0.00,VWS V14.01,2013-11-19 04:10:00,
2013-11-18 23:11:00,73.8,70.7,30.00,WSW,248,0.0,0.0,90,0.00,,---,0.00,VWS V14.01,2013-11-19 04:11:00,
2013-11-18 23:12:00,73.8,70.7,30.00,WSW,248,1.6,2.5,90,0.00,,---,0.00,VWS V14.01,2013-11-19 04:12:00,
2013-11-18 23:13:00,73.8,70.7,30.00,West,270,2.2,2.9,90,0.00,,---,0.00,VWS V14.01,2013-11-19 04:13:00,
2013-11-18 23:15:00,73.8,71.0,30.00,West,270,0.0,0.0,91,0.00,,---,0.00,VWS V14.01,2013-11-19 04:15:00,
2013-11-18 23:16:00,73.8,71.0,30.00,WSW,248,0.0,0.0,91,0.00,,---,0.00,VWS V14.01,2013-11-19 04:16:00,
2013-11-18 23:17:00,73.8,71.0,30.00,WSW,248,0.0,0.0,91,0.00,,---,0.00,VWS V14.01,2013-11-19 04:17:00,
2013-11-18 23:20:00,73.8,71.0,30.00,WSW,248,0.0,0.0,91,0.00,,---,0.00,VWS V14.01,2013-11-19 04:20:00,
2013-11-18 23:21:00,73.8,71.0,30.00,WSW,248,0.0,0.0,91,0.00,,---,0.00,VWS V14.01,2013-11-19 04:21:00,
2013-11-18 23:22:00,73.8,71.0,30.00,WSW,248,0.0,0.0,91,0.00,,---,0.00,VWS V14.01,2013-11-19 04:22:00,
2013-11-18 23:27:00,73.8,71.0,30.00,West,270,0.0,0.0,91,0.00,,---,0.00,VWS V14.01,2013-11-19 04:27:00,
2013-11-18 23:28:00,73.8,71.0,30.00,WNW,292,2.0,2.0,91,0.00,,---,0.00,VWS V14.01,2013-11-19 04:28:00,
2013-11-18 23:29:00,73.8,71.0,30.00,West,270,2.0,2.0,91,0.00,,---,0.00,VWS V14.01,2013-11-19 04:29:00,
2013-11-18 23:30:00,73.8,71.0,30.00,WNW,292,0.9,2.9,91,0.00,,---,0.00,VWS V14.01,2013-11-19 04:30:00,
2013-11-18 23:34:00,73.8,71.0,30.00,West,270,0.0,3.6,91,0.00,,---,0.00,VWS V14.01,2013-11-19 04:34:00,
2013-11-18 23:35:00,73.8,71.0,30.00,WNW,292,0.0,1.3,91,0.00,,---,0.00,VWS V14.01,2013-11-19 04:35:00,
2013-11-18 23:37:00,73.8,71.0,30.00,WSW,248,0.0,1.3,91,0.00,,---,0.00,VWS V14.01,2013-11-19 04:37:00,
2013-11-18 23:39:00,73.8,71.0,30.00,SSW,202,0.0,1.3,91,0.00,,---,0.00,VWS V14.01,2013-11-19 04:39:00,
2013-11-18 23:40:00,73.8,71.0,30.00,WSW,248,0.0,0.0,91,0.00,,---,0.00,VWS V14.01,2013-11-19 04:40:00,
2013-11-18 23:42:00,73.8,71.0,30.00,WSW,248,1.6,1.6,91,0.00,,---,0.00,VWS V14.01,2013-11-19 04:42:00,
2013-11-18 23:44:00,73.8,71.0,30.00,WSW,248,0.0,2.7,91,0.00,,---,0.00,VWS V14.01,2013-11-19 04:44:00,
2013-11-18 23:47:00,73.8,71.0,30.00,WSW,248,0.0,2.0,91,0.00,,---,0.00,VWS V14.01,2013-11-19 04:47:00,
2013-11-18 23:49:00,73.8,71.0,30.00,WSW,248,1.6,2.0,91,0.00,,---,0.00,VWS V14.01,2013-11-19 04:49:00,
2013-11-18 23:50:00,73.8,71.0,30.00,SW,225,0.0,2.0,91,0.00,,---,0.00,VWS V14.01,2013-11-19 04:50:00,
2013-11-18 23:51:00,73.6,70.8,30.00,SW,225,0.0,0.0,91,0.00,,---,0.00,VWS V14.01,2013-11-19 04:51:00,
2013-11-18 23:55:00,73.6,70.8,30.00,WNW,292,0.0,2.5,91,0.00,,---,0.00,VWS V14.01,2013-11-19 04:55:00,
2013-11-18 23:56:00,73.6,70.8,30.00,WSW,248,0.0,0.0,91,0.00,,---,0.00,VWS V14.01,2013-11-19 04:56:00,
2013-11-18 23:57:00,73.6,70.8,30.00,WSW,248,0.0,0.0,91,0.00,,---,0.00,VWS V14.01,2013-11-19 04:57:00,
2013-11-18 23:58:00,73.6,70.8,30.00,WNW,292,0.0,0.0,91,0.00,,---,0.00,VWS V14.01,2013-11-19 04:58:00,